GFSSW_250_spd_219.txt.gz
Wind_Speed
37 39 42 43 45 45 46 46 46 44 43 42 43 45 48 47 46 48 49 48 49 52 51 47 44 40 39 36 34 32 29 27 28 14 14 13 12 16 18 16 17 12 15 15 21
35 37 39 41 42 44 44 45 45 44 43 43 43 44 45 46 47 47 50 50 49 49 51 53 52 49 45 43 38 38 36 27 26 21 18 17 17 15 14 17 16 11 13 15 22
35 36 36 37 38 39 40 40 41 41 41 41 43 45 45 45 46 47 49 50 49 50 50 51 53 54 51 50 43 42 40 33 29 28 27 24 26 20 21 19 18 12 14 16 21
38 38 39 39 39 40 39 39 39 40 40 41 41 41 42 42 41 42 42 46 46 49 50 51 49 52 54 51 50 45 43 41 38 35 27 26 30 25 19 18 17 17 18 21 19
44 44 44 44 44 44 43 43 42 42 43 44 43 42 41 40 37 39 40 42 44 46 49 50 52 55 54 51 49 47 46 45 40 36 28 30 30 25 22 26 25 19 21 22 23
50 51 51 50 49 49 48 47 46 45 45 46 45 44 42 42 41 38 38 38 38 40 43 46 49 52 57 54 49 47 47 45 43 38 30 33 32 29 27 30 31 22 22 24 21
54 55 56 56 56 55 55 54 53 51 49 48 47 45 43 43 43 40 39 37 36 37 37 38 40 45 52 54 49 46 45 46 43 40 37 37 36 34 34 32 30 24 27 27 22
60 61 61 61 61 62 62 62 60 58 57 55 53 50 48 44 46 44 43 40 39 37 36 35 33 36 42 46 47 47 46 47 44 42 40 33 35 39 42 37 30 29 27 28 23
64 65 65 66 67 67 67 67 67 66 64 63 60 57 55 54 50 48 46 45 42 40 39 37 34 32 33 39 41 43 44 47 41 47 42 35 34 31 43 42 29 36 34 31 27
65 67 68 70 71 72 72 72 72 71 70 69 67 64 61 62 55 55 54 49 47 44 42 41 38 35 33 32 36 39 42 41 43 37 53 48 49 25 34 45 34 33 38 34 29
70 71 73 74 74 73 73 74 75 75 76 75 72 72 67 67 65 61 58 55 52 48 48 47 42 39 38 33 30 31 36 43 54 32 46 56 49 64 47 34 43 42 43 38 35
72 72 74 76 77 77 77 77 78 77 77 77 77 76 73 73 69 67 64 61 59 57 55 48 47 48 42 37 33 33 33 41 48 58 31 51 62 60 60 52 46 47 47 41 40
76 75 76 77 79 79 80 80 81 81 81 80 80 79 77 75 74 72 69 68 64 63 58 56 60 53 47 42 39 39 36 35 42 49 58 52 64 61 58 56 53 50 49 49 45
74 76 77 79 80 81 82 83 83 84 84 86 85 83 79 79 77 77 74 72 69 67 65 63 64 58 53 48 45 42 41 38 36 42 51 51 61 63 61 56 52 54 53 50 50
76 77 78 78 80 82 83 84 86 87 88 89 83 81 85 84 84 80 79 78 73 70 70 65 66 62 58 55 52 49 44 40 37 36 38 48 56 64 66 64 63 63 55 53 50
78 80 82 83 85 86 88 88 89 88 89 90 84 88 86 87 85 87 84 83 80 76 75 71 70 69 63 63 58 56 49 43 42 40 36 43 52 57 65 70 70 66 59 55 53
83 84 85 86 87 88 90 93 94 94 94 93 89 87 88 89 88 87 88 87 83 80 76 76 71 71 70 67 63 59 55 47 45 41 35 39 43 57 63 63 63 64 63 60 58
82 84 87 90 94 95 95 96 94 97 100 93 95 94 93 94 90 88 90 89 86 85 86 81 79 72 71 69 66 64 60 52 49 45 44 41 37 48 57 60 64 63 64 63 63
76 78 80 83 86 88 90 93 99 101 99 97 97 100 101 101 93 91 91 89 90 88 86 83 78 82 81 75 74 67 64 57 58 52 51 44 42 43 48 63 63 60 63 62 62
56 57 59 62 66 75 81 84 86 90 94 99 103 103 101 102 103 99 99 99 96 92 88 81 82 85 79 82 78 76 66 67 61 55 49 47 44 40 43 56 61 61 59 57 56
40 41 43 47 51 55 62 66 69 76 81 87 93 97 106 110 103 105 108 104 97 89 88 88 82 80 86 83 77 73 73 68 64 59 55 52 47 47 43 45 57 57 57 57 58
24 26 30 34 38 43 48 51 57 60 65 69 76 87 95 100 104 112 117 108 99 99 95 91 85 89 85 78 84 82 78 72 68 60 57 55 54 54 49 41 50 54 56 55 55
22 23 26 28 33 38 42 48 50 52 56 59 65 71 77 87 100 106 115 96 106 107 106 101 92 88 86 86 89 87 80 75 70 70 65 60 56 61 49 41 42 50 54 51 53
24 24 26 31 34 38 42 45 45 47 51 52 56 62 68 75 87 98 97 104 110 106 106 104 99 97 92 83 84 83 82 79 74 71 66 60 65 66 55 50 43 46 46 51 54
23 25 27 28 32 37 41 45 46 44 44 48 50 57 62 70 76 83 95 101 105 107 108 107 107 104 99 97 93 88 83 84 81 73 71 68 70 71 59 54 46 39 49 52 49
27 28 31 30 27 25 35 41 44 43 43 46 46 50 55 64 75 79 83 96 103 105 108 109 109 104 108 92 91 86 84 86 85 81 76 76 72 76 70 57 43 44 46 49 47
29 31 31 29 28 19 26 32 33 43 46 38 43 48 55 58 61 66 73 83 90 100 103 104 108 104 103 101 98 95 89 88 87 86 83 83 83 87 73 51 44 49 48 48 53

GFSSW_250_spd_222.txt.gz
Wind_Speed
46 47 47 49 49 49 48 49 49 49 47 45 44 43 43 45 44 43 46 46 44 45 44 42 40 38 34 30 29 26 21 16 25 19 17 15 11 12 15 15 15 17 17 22 23
43 47 48 50 50 49 49 49 50 50 51 50 49 47 46 46 48 47 46 47 48 47 46 44 44 43 39 37 34 29 28 21 28 23 20 16 20 16 20 20 23 19 16 21 23
40 43 47 49 51 51 51 51 50 50 50 51 52 49 47 48 47 50 48 47 48 49 48 46 45 46 45 44 38 34 34 30 27 24 23 25 18 16 23 18 21 20 14 21 24
38 41 44 46 49 51 51 50 51 51 50 49 49 47 46 45 45 48 49 48 48 49 50 49 49 48 49 47 43 43 41 39 36 27 24 25 25 24 25 20 19 18 16 22 24
41 41 43 44 45 47 49 50 51 51 51 51 50 49 46 43 43 43 47 48 49 49 50 52 51 48 49 51 49 46 47 43 40 32 29 25 37 30 23 8 21 26 24 23 26
43 44 44 45 45 46 47 48 49 50 51 51 52 50 46 46 42 42 42 43 44 44 45 50 49 51 47 47 49 48 46 43 40 37 31 6 23 27 26 22 27 28 22 23 26
48 50 50 51 51 51 50 50 50 50 50 49 49 48 45 49 44 42 42 41 41 41 41 42 44 47 50 50 47 47 48 46 42 39 35 40 44 33 30 30 31 32 27 23 23
53 54 55 56 57 57 57 56 56 56 55 53 52 50 48 47 47 46 44 42 41 40 38 37 37 40 44 49 48 47 47 47 41 39 37 38 35 34 33 38 35 37 31 25 27
60 60 61 61 62 63 64 63 62 61 60 58 56 52 53 50 53 50 46 46 43 41 39 37 35 35 36 39 43 46 45 45 43 38 32 32 37 37 35 39 43 38 37 25 28
65 66 67 67 68 69 69 69 68 67 65 64 63 60 59 58 55 51 50 50 47 43 41 39 38 36 35 33 35 41 42 41 42 37 31 39 45 36 33 33 30 36 39 34 35
70 70 71 72 72 73 73 74 73 72 72 72 67 67 64 63 61 61 59 54 50 46 47 46 39 37 40 37 33 27 36 40 39 44 37 44 37 52 41 31 26 37 33 31 36
76 77 78 78 77 77 77 77 79 76 76 76 73 74 70 69 70 67 63 59 57 56 54 47 40 48 44 40 34 30 33 40 44 50 44 39 38 38 35 38 32 36 32 35 34
81 81 82 83 83 83 82 83 82 81 79 81 79 79 77 75 73 72 69 68 63 63 58 52 59 52 47 43 38 36 34 35 48 57 59 51 41 33 47 36 50 48 35 40 39
82 85 86 87 88 88 87 88 87 87 84 87 84 82 80 78 77 79 75 73 69 67 65 63 64 55 51 46 44 41 40 37 45 56 65 54 59 58 54 50 41 47 53 54 44
78 80 85 89 91 92 91 91 91 90 89 90 88 83 85 81 84 82 81 78 74 72 71 66 67 62 57 52 50 48 46 43 41 46 65 66 57 55 58 66 65 61 55 53 50
79 80 81 82 84 88 91 94 95 94 91 95 90 90 90 86 87 86 84 82 80 76 73 71 71 67 62 62 59 56 52 47 41 41 41 53 66 62 63 57 60 66 62 56 47
82 83 83 83 83 84 86 88 90 91 96 99 95 91 92 89 92 91 87 86 83 81 75 75 72 71 70 66 64 61 58 53 47 45 41 42 49 55 64 70 69 69 57 55 48
78 82 84 86 86 87 87 88 86 90 95 100 98 93 92 93 92 93 91 90 88 85 86 80 79 72 70 69 68 66 64 59 53 50 48 49 46 44 46 52 63 64 65 61 55
66 68 72 75 79 85 91 93 93 97 98 93 85 93 94 95 94 95 93 92 91 90 88 86 77 80 81 76 75 70 68 63 60 57 56 51 48 50 43 42 45 55 65 67 46
53 60 66 72 76 81 85 89 93 98 96 96 96 95 95 96 97 98 94 92 93 94 92 86 84 90 82 83 80 79 73 70 66 63 57 53 52 52 48 45 44 48 61 66 72
35 39 45 50 55 62 70 81 88 89 92 98 102 101 96 95 104 100 95 94 95 98 95 90 90 89 88 90 78 78 75 73 72 67 62 59 56 54 55 52 48 48 47 56 62
26 28 31 34 38 46 55 62 69 79 88 93 97 98 101 107 104 98 100 106 109 100 96 92 90 87 88 83 81 81 79 79 75 69 65 62 58 65 60 59 55 49 46 44 57
25 25 28 30 33 36 41 49 57 67 71 76 82 88 95 99 103 107 106 108 107 101 95 93 91 86 85 82 85 87 83 83 80 76 72 67 59 65 61 59 61 52 40 40 53
19 20 21 23 29 35 40 46 49 54 59 66 70 75 81 89 95 103 106 111 104 103 102 100 94 93 84 84 85 85 84 84 81 78 73 67 63 70 65 66 71 55 46 43 49
22 17 16 19 24 30 37 43 49 51 56 58 61 65 69 78 85 93 101 105 106 103 100 104 102 98 90 91 95 91 87 85 86 84 81 73 70 74 75 77 75 50 45 45 44
25 19 18 19 23 26 29 32 43 49 50 56 56 63 66 72 79 84 93 101 100 106 111 106 104 102 100 99 99 95 90 86 86 84 82 80 78 86 84 82 78 53 42 46 39
30 23 19 22 24 27 25 26 33 40 37 49 55 56 58 57 60 67 73 77 92 102 108 113 111 108 104 106 108 99 86 85 87 84 87 90 96 93 92 88 73 40 39 47 45

GFSSW_250_spd_225.txt.gz
Wind_Speed
47 50 50 51 51 52 51 48 48 46 45 46 44 43 43 43 43 45 46 44 42 41 42 40 40 35 32 29 28 21 18 22 18 20 15 15 18 12 10 15 19 21 20 23 29
49 50 51 52 53 53 52 51 50 49 48 47 46 44 45 44 44 45 47 47 45 44 45 44 41 41 38 36 30 24 21 22 13 15 7 13 17 16 16 14 18 16 18 19 27
51 51 52 52 53 53 54 54 54 53 52 50 49 48 48 45 45 47 47 48 49 48 49 46 45 44 42 38 35 31 27 26 22 27 20 21 19 18 17 18 23 16 13 17 25
43 50 52 53 55 55 55 54 54 55 55 53 52 51 50 50 50 48 48 47 49 49 48 49 47 44 45 42 42 39 35 33 29 29 25 20 27 23 24 20 18 17 14 17 18
42 45 48 52 55 57 57 58 57 57 57 56 56 55 53 52 52 50 50 51 50 50 50 51 48 47 45 44 44 43 38 37 36 29 25 17 28 26 26 23 18 14 15 18 17
40 44 47 49 53 55 57 59 59 59 58 58 56 54 53 55 53 53 50 49 49 50 52 51 47 50 48 48 47 46 47 44 38 32 33 25 21 31 24 28 21 20 20 23 19
44 44 45 48 51 53 56 58 59 59 58 57 57 55 54 57 51 51 52 49 47 48 49 51 48 49 50 50 46 46 48 47 43 41 35 32 24 24 25 28 24 22 24 25 19
49 49 50 50 51 53 55 57 58 59 59 58 57 55 55 55 49 52 52 50 50 47 47 46 45 46 47 50 48 49 50 47 47 45 44 41 29 25 8 24 32 25 28 30 21
55 55 55 55 56 56 57 58 58 58 58 58 57 53 59 56 50 55 50 50 48 45 44 43 42 45 45 44 47 51 51 47 45 46 46 48 43 44 47 48 36 25 27 30 25
63 63 63 62 62 62 63 62 62 61 60 60 58 57 59 56 54 54 51 49 48 47 44 42 43 40 40 40 44 47 46 46 46 45 46 43 42 42 39 35 29 29 23 24 33
68 70 70 70 69 69 69 67 67 66 67 66 61 62 62 62 59 58 56 56 53 48 48 47 42 38 42 42 40 39 36 40 44 43 45 43 34 33 37 36 36 31 31 30 19
75 76 77 77 77 76 75 74 75 71 72 71 69 70 67 68 64 65 61 57 54 54 53 45 39 48 46 45 38 36 33 37 38 45 44 41 53 33 36 29 29 34 32 32 25
83 83 84 84 83 82 82 81 80 77 76 76 76 73 75 72 71 70 66 63 59 61 56 50 56 53 49 46 40 37 35 35 34 45 55 50 54 41 42 29 22 29 38 35 27
86 88 90 91 90 88 87 87 85 83 80 85 82 79 78 76 75 77 73 70 68 65 63 58 62 54 51 47 44 41 40 41 36 44 54 54 53 58 36 38 39 32 22 32 32
81 85 89 93 95 95 94 94 92 89 87 89 85 82 85 81 83 83 78 75 73 72 69 65 67 60 55 52 48 45 46 45 39 39 54 55 55 51 48 44 49 44 36 37 36
82 83 84 87 90 93 96 98 97 95 94 98 93 93 90 87 86 87 82 80 79 77 72 74 72 64 60 60 55 56 52 50 43 38 40 53 49 44 52 45 50 45 52 46 39
82 85 87 88 88 89 90 92 93 95 101 107 102 99 95 93 92 90 87 84 82 80 76 78 75 70 67 65 63 62 58 53 47 41 38 47 61 55 52 49 51 44 53 46 49
72 78 84 89 90 89 89 90 88 93 99 110 103 102 98 96 96 94 92 89 86 84 83 81 79 74 70 69 67 67 64 58 52 49 46 48 45 61 65 57 55 59 51 62 56
53 61 70 78 84 89 91 90 92 98 103 97 99 101 99 100 100 101 97 93 92 91 87 84 78 80 81 77 77 70 70 63 61 56 55 53 53 53 53 67 73 58 41 56 63
38 43 50 59 68 76 84 92 96 101 101 94 93 90 89 95 101 103 103 101 99 97 93 87 87 87 82 82 80 78 71 70 66 62 60 58 58 51 46 51 50 54 63 66 53
28 31 34 40 50 59 69 76 87 96 94 95 94 92 96 96 97 101 107 105 104 101 99 95 93 88 89 88 80 78 75 73 68 66 64 62 62 61 56 54 55 56 54 48 44
28 28 29 32 36 42 50 60 74 82 86 95 101 101 100 99 101 103 101 101 105 101 99 98 94 92 89 86 83 82 78 77 73 69 70 67 67 68 64 62 62 61 53 49 44
23 28 28 30 33 36 39 47 57 66 76 89 92 95 101 104 105 100 103 102 102 103 101 98 96 93 94 93 91 86 81 80 78 77 71 69 69 69 69 68 64 67 51 49 40
23 22 27 26 30 34 38 43 49 53 63 70 78 90 97 100 104 107 107 102 102 104 98 101 99 96 91 90 86 86 84 82 81 79 73 71 76 74 76 72 69 73 61 52 43
30 24 21 24 27 28 33 40 47 48 57 60 71 75 79 91 101 108 111 107 106 105 99 100 98 95 88 85 87 89 88 87 89 83 78 77 80 83 81 76 80 69 65 56 49
39 30 26 21 23 24 31 36 43 47 51 55 60 65 73 77 85 94 99 103 107 106 102 101 100 98 93 90 95 97 93 91 92 89 82 85 86 88 83 87 78 70 68 61 53
48 39 31 25 23 23 29 33 37 38 45 48 51 59 62 64 68 79 85 92 98 103 104 104 101 100 95 99 97 98 96 96 93 92 92 93 93 86 93 87 74 72 66 60 55

GFSSW_250_spd_228.txt.gz
Wind_Speed
51 54 54 53 50 51 51 48 46 45 43 46 44 45 44 44 47 46 42 42 42 39 36 36 34 31 26 24 24 16 16 18 17 12 12 11 9 17 14 10 13 19 20 24 31
51 53 56 55 54 52 53 53 50 49 46 46 47 46 45 45 46 48 45 44 43 42 40 40 37 35 31 31 28 25 20 19 20 13 1 7 12 19 13 12 13 16 14 20 26
49 55 57 57 57 56 55 55 54 52 50 47 48 48 48 48 47 51 50 49 49 47 45 45 43 41 39 36 34 29 26 26 19 8 8 9 16 17 19 20 19 15 14 18 23
45 56 55 58 59 58 57 57 55 56 53 50 49 48 51 50 50 51 53 53 54 51 49 49 48 46 45 43 41 35 30 29 27 19 20 12 11 16 19 20 18 17 12 11 20
43 56 57 57 60 60 59 60 59 59 57 55 55 53 53 53 53 50 51 49 54 57 54 54 53 51 48 47 44 40 37 34 32 29 18 18 16 19 16 20 24 19 17 12 19
43 48 58 59 60 63 62 61 62 61 60 58 56 56 57 57 52 50 51 50 51 56 57 54 56 54 51 52 50 43 39 39 37 32 26 23 22 19 15 25 31 24 17 9 17
46 50 52 59 63 64 63 64 64 63 63 62 60 60 62 59 56 57 56 54 54 55 56 56 53 55 55 54 57 50 44 42 40 36 32 29 23 29 28 27 32 24 13 11 16
49 50 52 57 60 63 66 67 66 66 65 64 62 62 66 61 57 62 60 59 56 57 56 53 54 54 55 56 57 54 48 45 44 44 41 37 34 29 35 30 34 22 18 16 10
54 54 55 56 58 62 65 66 67 67 68 67 66 67 70 62 62 64 61 61 58 56 54 53 50 53 55 53 58 58 53 53 48 48 45 42 37 35 25 25 33 31 15 12 11
59 60 60 60 61 61 62 65 68 67 68 68 67 68 71 66 62 65 63 61 60 59 55 52 51 54 51 50 51 50 50 49 47 46 46 44 42 41 40 29 29 29 29 17 13
66 67 67 66 67 66 66 66 66 66 68 68 66 67 68 67 64 65 66 62 61 57 55 55 51 49 50 51 49 50 49 47 47 47 44 43 44 43 46 49 50 48 32 23 19
73 74 74 74 74 73 71 71 71 66 67 67 68 70 71 68 65 65 64 61 59 57 60 54 46 55 54 51 47 46 42 42 42 44 45 45 46 45 50 50 50 45 30 27 19
81 81 82 81 81 80 79 79 76 71 71 72 71 73 75 70 68 68 67 64 61 61 58 52 56 57 52 50 46 45 40 42 41 44 45 46 48 49 49 51 46 43 31 26 23
87 88 89 89 87 88 87 85 82 79 78 83 76 79 74 75 72 74 72 69 67 64 64 57 61 57 54 51 49 46 46 44 41 43 42 44 49 51 53 51 44 40 32 22 20
83 88 92 96 95 93 93 92 89 87 87 88 85 84 84 78 83 83 79 74 72 70 68 61 66 62 58 55 52 50 50 46 46 42 39 43 45 49 54 52 45 36 25 24 19
83 87 90 94 98 101 101 98 95 93 97 96 97 94 90 85 85 87 81 79 79 75 71 68 71 65 61 62 55 60 54 50 48 42 38 40 44 52 54 60 55 49 40 34 25
76 82 88 92 95 97 99 103 103 103 107 103 99 96 93 91 91 91 88 84 81 79 76 76 74 70 68 65 61 64 58 53 51 43 45 40 38 54 60 55 49 51 49 41 41
58 68 76 83 92 96 98 98 98 107 115 109 102 101 100 97 97 95 93 89 86 84 82 80 79 75 73 70 67 71 66 58 54 47 49 44 38 48 55 58 55 54 47 45 47
38 48 58 68 75 84 93 98 103 109 108 105 109 109 108 103 102 100 95 93 93 91 87 83 83 82 82 78 78 76 71 64 61 55 55 50 45 43 49 49 55 52 46 47 45
29 30 39 50 60 70 77 88 100 102 100 99 102 106 109 110 109 104 101 99 97 94 92 89 90 88 84 84 80 77 76 73 65 62 60 55 50 48 45 58 56 53 52 53 49
32 22 25 33 41 51 61 74 85 93 98 101 101 101 102 104 107 110 109 106 104 102 97 94 91 90 91 84 82 80 79 75 70 66 64 61 55 53 53 53 64 65 58 54 54
31 23 20 22 29 36 44 55 66 77 86 95 103 102 100 100 100 106 112 114 111 107 102 99 96 96 90 86 87 85 84 81 77 72 68 64 62 64 62 59 54 60 66 65 62
33 25 19 20 23 27 33 39 45 57 72 85 92 100 104 105 104 106 106 110 114 110 108 104 99 96 93 94 91 88 83 83 81 78 72 73 71 71 69 65 56 56 53 39 33
44 29 23 18 19 20 26 34 41 45 57 73 85 93 101 106 108 110 105 106 104 105 106 106 103 99 94 94 94 91 91 89 85 80 77 74 76 76 73 71 64 64 60 60 61
52 41 30 24 17 17 23 26 29 40 49 57 67 81 91 98 105 112 106 105 102 100 98 99 103 101 97 96 98 94 94 91 88 83 81 82 82 84 80 73 70 69 64 64 65
56 50 38 29 23 19 21 24 28 33 40 50 56 67 79 89 97 102 106 108 108 105 100 97 95 98 97 97 98 96 96 94 95 89 87 90 88 89 81 78 71 71 70 70 70
58 51 45 38 28 23 22 24 29 32 34 42 49 58 66 73 86 95 96 103 110 109 107 103 97 97 96 98 98 100 97 99 97 92 92 91 89 88 84 80 73 72 74 74 72

GFSSW_250_spd_231.txt.gz
Wind_Speed
47 52 55 58 58 58 55 51 47 50 52 50 50 51 50 50 49 47 47 42 39 36 36 37 34 30 24 18 17 10 11 14 4 11 14 8 6 10 12 13 15 19 24 28 34
44 52 56 59 58 59 58 54 51 50 51 50 49 50 51 49 48 48 49 46 43 41 39 41 37 34 28 22 23 20 21 20 14 10 11 5 5 13 12 13 13 16 23 25 29
41 51 57 60 59 59 59 57 55 53 51 50 50 49 50 53 51 51 53 50 48 45 42 45 42 39 31 31 29 26 27 22 16 12 11 8 17 20 16 17 13 19 23 22 25
38 49 58 62 62 60 59 59 58 57 54 52 51 52 52 53 55 54 56 54 50 49 45 46 46 44 36 34 33 32 30 28 23 17 16 11 22 12 23 7 9 21 25 19 20
38 46 58 64 65 64 62 61 62 61 59 56 54 53 53 54 54 55 54 54 54 52 50 51 49 46 43 45 43 39 38 36 32 22 19 18 11 21 23 7 18 20 22 18 18
40 45 54 63 67 67 66 64 62 63 63 60 59 57 56 56 52 53 55 56 56 57 56 56 53 51 48 46 47 44 43 42 36 33 25 21 17 17 15 29 27 23 18 19 15
45 46 50 62 68 71 69 69 67 66 65 65 64 63 63 59 53 55 56 58 59 59 59 59 57 57 56 52 51 47 46 46 43 38 32 26 24 23 15 17 16 17 22 22 16
51 51 52 57 68 71 72 71 72 70 69 68 67 68 70 60 58 64 60 60 60 61 61 59 58 59 60 58 56 48 48 47 47 45 38 33 28 30 27 25 26 29 25 26 7
55 57 58 59 64 73 73 74 74 73 72 71 71 71 72 64 65 66 63 64 60 60 60 57 56 56 59 60 61 55 52 50 50 48 46 40 36 34 34 36 35 25 28 23 11
59 60 62 64 67 70 77 78 75 76 76 73 73 74 73 70 68 69 70 67 65 62 61 57 57 57 60 59 59 57 57 54 50 49 46 45 43 40 38 40 40 30 29 32 35
61 63 66 68 69 70 74 77 80 80 78 79 77 79 79 75 74 74 74 71 69 65 64 63 59 60 63 61 59 59 57 57 57 53 50 49 49 48 46 40 39 37 31 30 36
68 70 71 72 74 73 74 76 77 78 81 83 83 83 81 80 78 75 77 75 71 69 68 64 60 66 65 59 55 58 55 53 57 55 49 46 47 44 47 43 42 41 34 33 36
77 79 79 79 79 79 80 79 77 76 77 81 82 84 85 83 82 80 79 79 75 73 71 67 63 72 65 60 56 55 55 55 54 55 53 47 46 44 45 45 44 46 43 42 42
84 85 86 84 84 85 87 85 82 81 80 83 81 84 85 82 82 83 83 81 79 74 75 70 68 69 65 61 57 56 54 52 52 50 49 46 41 43 45 46 46 47 48 51 47
82 89 93 92 92 92 93 91 90 89 90 90 88 86 83 79 84 84 85 81 79 79 76 65 68 66 64 61 60 58 57 53 52 48 45 44 44 42 46 49 50 49 45 44 37
77 83 89 95 100 101 99 98 98 98 99 98 94 91 87 83 84 85 82 82 81 78 74 69 71 68 65 66 61 65 59 53 52 47 45 44 41 41 44 48 52 50 48 43 37
60 71 79 86 96 99 104 108 104 104 105 105 101 97 94 91 89 90 84 81 80 78 76 72 71 70 70 68 62 67 60 56 52 47 50 44 41 39 43 42 46 48 50 37 29
47 53 60 72 80 92 100 104 108 113 109 104 104 101 103 98 97 95 89 85 83 80 79 76 77 75 71 69 67 69 66 59 54 50 55 46 43 43 39 39 41 45 45 46 39
43 43 48 57 67 78 88 98 105 108 109 112 110 106 107 104 101 99 95 94 90 87 85 81 80 80 77 75 75 74 69 63 62 59 58 47 50 42 41 41 39 44 47 49 53
39 35 32 41 54 66 76 86 94 101 104 106 110 113 113 106 104 104 103 100 97 93 90 86 85 86 85 84 80 76 75 71 64 61 60 54 52 47 46 44 42 40 50 48 46
40 34 25 27 37 50 60 71 78 87 98 107 108 108 110 113 113 110 107 105 103 99 96 92 89 90 90 82 83 81 79 74 67 63 62 62 56 52 49 47 46 38 40 46 53
46 36 26 19 24 33 44 52 61 72 84 96 107 110 109 108 110 115 116 110 106 104 101 100 96 96 91 90 90 88 85 80 74 68 65 65 63 58 54 48 47 47 42 45 43
57 45 30 21 18 22 30 39 48 57 68 81 95 106 111 111 112 110 111 114 113 113 110 105 100 97 96 96 92 89 86 85 81 75 68 68 68 64 60 56 51 52 48 53 54
60 53 42 24 16 17 22 32 41 49 56 66 78 89 103 110 113 112 113 111 114 116 114 112 106 101 98 97 96 93 92 91 86 79 74 71 73 70 65 63 58 55 55 54 56
61 58 50 36 23 14 13 21 30 41 50 57 64 76 89 100 110 113 113 113 114 115 115 113 110 108 105 103 101 98 97 95 89 83 80 77 74 76 70 68 63 60 57 56 56
59 58 54 45 34 24 17 14 19 28 38 50 56 62 75 87 99 108 113 114 114 111 109 110 111 110 108 108 106 102 100 99 94 88 85 81 76 77 74 71 65 64 61 62 61
60 61 57 54 42 33 26 22 21 26 35 45 53 61 65 73 85 98 105 112 116 113 110 107 106 106 107 107 109 107 105 103 98 94 89 85 79 82 80 76 73 69 68 67 68

GFSSW_250_spd_234.txt.gz
Wind_Speed
46 46 49 58 61 61 58 54 52 52 51 54 52 52 51 52 50 46 42 43 41 37 35 32 31 26 22 17 11 11 7 8 9 3 11 13 9 13 13 19 16 26 32 33 37
44 46 50 56 61 62 61 57 55 53 50 51 53 53 53 53 51 49 47 47 45 43 38 37 33 31 28 22 19 15 4 14 9 7 11 5 9 16 18 28 16 25 27 28 32
43 45 49 54 61 62 63 62 59 56 53 52 54 54 52 54 54 52 50 49 51 49 45 41 38 34 32 30 27 22 21 21 18 15 11 7 10 12 10 17 11 20 27 25 27
40 44 49 54 59 64 64 65 63 60 55 54 54 54 55 55 54 53 52 51 52 52 49 46 40 37 36 37 33 30 28 24 22 17 15 10 11 11 9 3 6 18 25 25 24
40 42 46 54 60 65 66 65 65 63 59 55 58 57 57 58 58 57 55 52 52 54 54 52 46 41 39 40 39 35 33 28 25 23 20 16 11 12 14 6 1 20 26 23 21
41 42 42 50 61 67 69 68 67 67 64 59 58 60 59 62 56 57 58 58 56 59 60 58 51 48 45 43 44 42 39 37 34 31 28 19 15 8 7 19 10 21 17 18 20
45 44 44 47 57 67 72 71 69 70 68 65 65 63 64 62 57 58 61 63 64 62 61 61 57 52 49 48 48 50 44 43 39 36 33 28 21 18 20 14 19 16 12 19 21
49 49 48 49 52 62 73 74 73 72 71 70 69 68 68 60 61 63 62 62 64 63 61 59 60 57 52 53 52 50 50 47 42 39 38 36 27 23 24 23 18 16 21 19 21
49 54 55 55 56 58 70 76 77 76 74 73 75 75 72 67 66 65 65 65 65 64 62 58 60 58 56 57 57 56 53 50 47 44 43 40 34 30 27 29 28 29 32 29 21
48 54 59 61 61 62 67 74 80 81 80 79 78 78 76 74 72 70 72 69 68 67 65 60 60 60 55 55 61 59 59 55 53 49 45 42 39 39 32 33 34 35 35 32 23
52 53 58 67 67 67 69 72 79 84 85 84 83 81 80 78 77 75 75 74 71 67 66 63 62 60 63 62 60 61 61 61 56 51 49 47 45 42 38 36 36 36 39 36 31
60 61 62 67 73 74 75 76 79 82 86 89 87 87 84 81 80 78 80 76 74 71 71 66 61 65 65 63 61 58 60 61 58 54 51 47 46 45 45 42 41 40 39 36 34
68 70 70 72 74 78 80 80 80 82 86 92 92 92 90 87 86 84 82 81 78 77 73 69 68 72 69 66 62 57 59 61 59 55 53 50 48 45 48 48 42 38 40 38 34
69 76 80 79 80 82 85 85 85 85 88 95 96 96 94 91 90 87 84 84 83 80 80 75 73 74 71 66 63 58 60 59 58 53 50 49 46 44 45 46 44 41 42 41 35
62 72 81 87 89 87 89 90 92 91 92 93 94 97 96 92 91 90 91 87 85 83 81 76 76 77 75 70 68 64 65 62 58 53 49 48 47 45 42 42 42 42 40 41 42
60 69 78 84 90 97 97 95 96 98 99 98 96 93 94 93 94 97 93 90 90 88 82 81 80 79 77 77 72 70 66 61 58 55 50 49 47 44 40 39 38 39 38 40 42
52 57 66 79 86 89 94 101 102 102 102 103 101 98 96 93 93 94 93 91 90 89 86 83 83 81 80 79 74 71 66 62 59 55 52 49 47 45 40 39 37 37 38 39 41
54 52 56 60 68 79 87 95 100 105 106 108 107 105 103 100 96 95 93 88 86 86 86 84 82 81 80 78 76 76 71 64 59 55 58 50 48 46 39 34 35 36 36 36 37
58 50 48 50 49 62 73 81 90 100 107 113 111 111 110 107 103 102 98 95 90 86 84 81 78 81 79 79 80 75 71 65 62 59 58 50 54 46 41 39 37 36 37 33 32
63 55 45 41 41 44 57 70 78 89 101 108 116 116 114 113 111 109 107 100 96 93 88 85 81 82 83 83 83 76 73 70 64 59 56 52 55 48 46 42 39 39 37 33 31
64 59 53 37 35 32 40 50 64 77 89 104 110 115 120 118 115 115 113 108 104 99 94 91 87 86 83 81 81 79 74 70 65 61 59 57 56 54 49 46 42 42 39 38 32
63 64 61 49 29 29 29 39 47 61 74 88 102 111 116 119 121 119 116 114 111 106 103 99 94 90 88 88 87 83 77 74 69 64 64 60 58 58 55 50 46 44 43 40 40
62 68 65 60 40 23 26 29 36 46 58 75 88 100 111 115 117 121 122 118 115 112 109 105 102 98 96 93 90 86 82 79 72 68 63 62 61 61 59 55 51 47 46 45 42
55 64 69 67 54 30 20 26 31 37 46 58 72 87 98 109 114 115 118 121 120 116 113 111 106 103 100 97 99 95 90 86 81 72 67 62 64 64 62 59 55 53 52 49 44
54 62 66 64 58 49 24 19 26 35 42 50 58 70 84 97 106 113 116 117 118 120 119 115 112 109 104 104 104 100 97 93 87 80 72 70 68 69 65 64 61 59 58 54 51
54 61 66 62 60 51 42 26 19 26 37 48 55 61 70 83 94 105 113 117 117 117 119 121 119 114 110 110 108 105 102 100 95 87 79 75 72 74 70 68 66 64 62 59 55
52 58 66 65 60 56 43 35 30 22 29 38 49 58 65 72 82 92 104 113 116 118 116 116 120 120 116 114 113 110 107 104 99 94 87 82 78 77 76 72 69 67 66 64 63

GFSSW_250_spd_240.txt.gz
Wind_Speed
54 63 67 68 64 62 58 56 57 55 55 53 52 51 50 49 47 45 43 39 37 33 28 28 24 23 24 12 8 12 10 8 5 5 8 8 13 14 17 17 24 30 34 34 38
47 53 63 67 68 66 62 59 59 58 57 56 55 53 52 51 50 48 46 44 41 37 34 31 29 26 27 19 14 11 5 9 7 4 6 5 8 9 13 10 16 24 28 30 32
40 46 53 64 69 69 65 63 60 60 59 59 58 56 54 53 51 50 49 47 46 42 39 35 33 30 30 27 20 16 10 10 12 7 0 3 5 8 11 6 8 16 22 25 25
37 39 45 53 63 68 68 65 63 62 63 61 61 59 57 54 53 52 51 48 48 47 43 41 38 36 32 30 27 24 19 13 18 11 7 5 4 7 6 4 10 13 21 23 22
38 37 41 46 54 61 68 68 68 66 64 65 63 64 63 59 58 55 52 50 49 49 50 46 44 42 37 35 30 29 27 21 23 18 15 12 7 7 6 6 1 3 13 19 19
40 40 40 45 50 51 58 68 69 68 66 66 65 66 67 64 60 59 57 55 52 51 50 50 49 49 44 41 38 33 31 29 26 23 23 19 15 11 9 11 7 4 12 12 15
42 42 42 44 48 52 52 59 70 76 73 69 68 67 67 66 63 62 61 57 56 54 52 52 49 51 51 48 44 41 36 34 32 29 27 25 21 17 12 11 14 13 16 18 15
41 42 44 46 48 51 53 54 63 71 79 76 73 71 68 66 67 69 67 63 60 57 54 54 52 51 52 52 49 47 43 40 36 35 32 31 29 22 17 13 16 16 14 17 19
41 41 43 47 49 51 53 54 58 65 73 81 80 77 72 69 68 70 68 66 63 62 59 56 54 53 53 54 52 50 48 45 41 35 35 35 35 32 27 21 16 18 20 19 19
41 43 43 45 49 51 53 55 57 63 70 77 82 84 78 76 73 71 71 69 67 65 63 60 58 56 56 57 56 53 50 49 45 43 39 34 36 36 33 31 23 20 21 22 21
38 42 45 47 48 51 54 56 58 61 68 76 81 85 85 83 79 76 75 72 71 66 64 63 62 59 61 63 57 56 52 51 49 46 44 41 37 37 37 33 30 25 25 24 24
42 44 45 47 50 53 56 59 61 64 66 72 81 86 87 87 87 83 83 78 73 70 71 68 64 64 64 64 62 59 56 53 52 48 46 46 43 40 38 35 34 31 27 23 22
48 50 51 53 55 56 59 62 67 69 72 71 77 86 89 91 91 89 88 86 81 77 74 72 73 72 70 67 65 62 59 57 54 51 50 49 49 45 40 38 38 34 33 31 24
53 56 59 61 62 64 65 66 67 72 77 79 79 81 89 91 95 94 93 91 89 83 80 77 75 73 70 69 66 66 64 60 56 53 50 49 47 47 44 40 37 34 31 29 27
44 50 56 62 68 72 73 74 75 76 80 80 83 84 84 90 92 97 98 94 91 91 89 79 79 75 71 69 70 67 69 63 58 55 53 51 49 47 46 43 37 34 33 32 29
44 49 54 59 62 65 70 77 84 88 87 85 85 86 90 89 91 97 99 99 97 97 93 91 87 82 77 75 74 73 69 65 60 56 51 49 47 46 44 40 38 34 32 32 30
39 43 48 55 62 65 71 78 83 91 92 90 88 88 91 94 94 95 98 100 101 100 96 96 91 88 85 80 77 75 70 65 62 58 51 48 47 47 45 42 38 35 33 33 31
35 39 41 43 44 50 57 69 82 89 87 88 92 95 95 95 98 99 98 99 104 102 102 101 96 92 88 85 83 80 77 71 66 62 56 53 50 50 46 43 42 38 36 34 33
29 34 36 38 38 38 40 41 62 82 82 81 86 92 100 100 100 101 103 102 102 105 107 105 100 98 94 92 89 84 80 76 73 68 62 58 57 53 49 46 43 40 39 37 34
33 37 40 41 42 42 40 36 39 58 68 72 74 86 95 101 107 106 107 107 106 100 102 105 103 100 100 97 91 88 84 81 74 69 63 62 59 58 52 49 45 45 43 40 39
32 35 39 43 46 49 48 43 36 38 44 53 65 77 84 96 104 112 113 108 108 109 105 103 104 106 104 96 95 92 85 81 76 70 65 63 60 62 56 53 50 48 45 43 42
33 35 39 44 48 51 52 47 38 25 33 40 52 66 80 92 100 109 113 113 110 111 112 109 105 104 99 101 99 96 90 87 81 74 70 65 62 62 57 55 52 51 49 47 45
32 36 42 47 52 56 60 60 48 26 21 32 43 55 69 82 97 104 111 115 117 114 113 113 108 106 102 100 97 93 91 88 84 79 72 69 68 68 65 59 56 55 53 50 48
34 39 45 51 55 58 62 64 66 47 27 23 33 45 57 72 85 99 106 112 115 119 117 114 113 111 105 98 99 96 93 90 85 79 73 69 70 69 67 63 60 58 56 54 52
35 39 45 49 54 60 64 67 69 61 41 19 22 35 45 59 74 87 99 108 115 118 121 118 115 114 110 107 103 96 93 91 86 80 76 75 73 75 73 65 60 60 60 58 57
36 41 46 49 55 60 65 69 72 65 48 34 19 24 36 46 59 74 88 100 110 116 119 121 120 114 113 110 106 103 98 94 87 82 78 76 74 81 73 66 66 66 62 61 59
38 42 47 52 57 61 66 70 73 70 52 45 37 18 26 36 46 60 73 88 101 110 117 119 121 119 115 114 110 110 103 97 92 88 80 75 75 77 72 69 68 69 67 64 64

GFSSW_250_spd_243.txt.gz
Wind_Speed
68 67 66 65 64 62 60 58 58 55 53 52 52 50 48 48 46 42 38 35 32 30 27 26 21 19 19 13 15 14 9 8 5 4 5 7 10 14 13 16 21 23 33 34 37
62 69 69 68 66 64 62 61 59 59 57 55 53 52 50 49 50 48 45 40 37 33 31 28 25 25 22 19 13 13 10 9 9 5 4 3 6 12 8 13 19 27 32 30 31
55 61 69 70 70 69 64 63 61 60 59 57 56 55 53 52 50 50 49 47 41 41 35 31 30 28 26 22 17 17 12 13 11 11 4 1 4 7 8 10 19 24 25 28 29
50 54 59 66 73 72 69 66 65 63 62 61 58 58 56 55 53 53 53 52 46 42 41 40 34 32 29 28 25 19 17 12 15 16 12 5 4 5 5 8 10 14 18 20 24
43 48 52 57 65 71 72 73 70 67 64 63 63 61 59 56 56 55 53 53 49 47 45 42 41 38 32 32 29 26 23 18 16 20 15 12 11 6 6 5 4 13 10 19 21
41 43 47 48 53 59 69 74 74 71 68 65 64 65 63 61 59 58 55 54 52 48 48 47 46 43 40 38 35 31 28 27 21 21 22 19 17 18 8 8 9 6 12 19 21
42 43 44 46 46 52 59 67 73 76 72 71 68 66 65 66 64 62 59 56 55 51 50 47 48 49 46 43 41 37 34 32 29 27 28 25 23 22 14 11 7 5 13 15 20
44 45 46 45 46 46 52 56 63 71 75 74 73 70 67 68 69 67 64 62 59 55 53 51 49 49 53 50 47 45 43 39 36 34 31 30 28 25 23 14 12 13 14 14 14
45 45 47 48 48 49 49 53 57 62 65 74 77 75 73 70 68 69 69 68 64 61 59 55 52 51 52 54 55 54 49 45 29 41 38 35 33 31 28 24 18 16 16 14 15
43 44 45 47 49 52 52 53 57 62 62 65 75 80 77 74 73 72 70 70 70 67 64 61 58 57 56 55 56 57 57 53 50 47 44 40 36 32 30 30 25 21 18 17 16
41 44 46 46 49 51 54 56 57 61 65 65 66 75 82 79 78 75 74 72 72 71 66 65 62 61 62 61 59 54 55 54 52 51 48 44 41 38 34 30 28 26 21 19 17
37 38 42 46 49 51 53 56 60 62 65 69 69 70 78 86 88 84 81 77 74 71 72 70 65 68 67 64 60 59 56 53 51 50 49 47 45 42 40 36 33 29 27 25 22
42 43 44 45 48 52 56 60 63 65 69 68 74 74 75 81 86 90 90 86 80 76 74 71 70 73 70 68 65 62 61 58 54 49 50 48 46 44 42 40 38 35 32 29 26
47 48 50 52 53 55 56 59 61 64 69 68 73 77 80 80 85 88 91 92 89 82 79 75 77 72 71 70 68 66 64 62 58 55 53 51 49 49 46 44 41 39 36 31 27
42 47 52 57 60 62 63 64 65 66 69 70 74 80 81 85 84 89 91 94 92 92 90 79 80 76 72 72 71 68 67 64 60 58 55 54 51 48 46 43 42 40 38 35 28
37 41 44 48 52 58 62 68 72 75 78 79 81 81 85 87 87 88 90 94 95 96 94 90 88 83 77 78 77 76 74 70 64 61 57 56 53 51 51 46 43 40 38 34 29
34 37 40 45 49 54 59 63 68 74 81 87 89 89 86 90 89 90 89 92 94 97 96 95 93 91 87 82 80 77 75 72 68 64 60 59 58 56 50 47 44 40 38 36 32
32 35 38 42 46 49 54 60 67 73 80 86 91 93 91 91 88 92 92 93 93 96 99 100 101 95 93 87 85 82 78 73 69 66 63 62 59 54 52 48 45 42 40 37 34
27 30 34 35 36 37 41 47 55 64 75 84 87 87 90 93 95 95 93 95 98 98 97 102 100 102 100 96 95 88 85 77 76 72 71 67 64 61 55 53 48 46 42 39 35
27 29 31 27 25 28 31 35 38 43 53 70 84 84 79 84 90 101 102 104 105 103 105 101 101 104 102 101 97 97 87 90 83 78 73 70 67 63 59 55 51 47 44 41 37
27 27 24 25 28 30 33 33 31 35 40 48 62 79 79 76 79 94 102 111 108 107 105 98 98 97 104 99 98 96 96 92 87 83 78 75 71 69 66 60 56 52 50 46 42
25 24 25 27 29 33 35 41 45 45 40 35 47 60 61 64 71 80 98 108 112 111 103 102 103 101 101 95 101 102 99 95 91 84 81 78 76 76 71 66 58 58 51 50 47
22 24 26 29 32 33 40 44 50 53 55 41 32 47 52 55 67 79 89 100 103 111 110 113 109 106 105 102 103 101 97 95 91 91 90 85 80 81 73 68 61 57 56 53 49
24 26 29 32 35 39 43 48 52 58 60 54 37 35 45 50 56 70 85 93 97 108 111 116 113 107 105 103 97 97 99 100 95 96 87 84 84 82 76 74 69 61 59 56 53
24 27 30 34 39 42 47 51 56 60 63 64 46 33 39 47 50 61 73 83 97 105 110 115 117 114 110 107 105 104 101 98 97 91 91 87 88 84 81 85 67 64 63 60 56
27 30 33 37 40 44 50 54 58 62 66 67 53 34 34 42 44 52 60 76 90 100 109 115 114 117 116 111 107 108 103 98 96 94 95 94 91 86 95 85 68 66 64 61 60
28 31 36 39 42 46 52 55 60 63 68 70 59 42 26 31 39 43 53 64 77 89 104 111 113 117 117 115 111 104 104 102 96 95 94 94 91 95 97 73 69 70 69 67 65

GFSSW_250_spd_249.txt.gz
Wind_Speed
65 63 58 56 54 53 52 50 49 50 50 49 49 45 43 41 38 34 31 29 27 25 22 19 22 19 18 17 16 10 10 5 9 14 6 15 13 17 18 25 28 37 38 39 42
64 65 63 58 56 56 54 54 52 50 52 52 51 49 47 44 42 38 35 32 30 29 26 21 17 17 19 18 18 8 1 8 5 9 1 7 11 15 15 22 21 32 36 36 36
56 65 66 62 60 58 56 55 55 53 52 53 53 53 51 48 46 42 39 38 34 31 29 27 25 21 19 16 19 13 8 11 8 13 7 3 9 12 14 20 20 17 36 34 34
50 57 67 67 63 62 59 57 56 57 55 54 55 54 55 53 51 46 44 44 40 37 34 31 28 26 23 23 21 22 17 12 8 12 13 8 13 15 11 15 22 16 24 30 34
50 52 59 69 68 66 64 61 59 57 58 58 56 57 56 53 56 52 49 47 44 42 42 38 34 32 29 27 29 26 26 21 9 9 12 17 14 12 14 14 15 21 21 25 30
48 50 53 60 70 71 69 67 65 63 60 61 60 60 58 58 57 56 54 52 51 47 47 42 41 38 35 31 32 31 30 28 27 27 22 19 18 14 16 14 14 16 19 20 28
45 49 53 54 62 73 73 71 69 68 64 62 61 63 62 61 59 59 57 56 55 53 52 48 46 45 43 42 35 35 33 27 30 30 27 20 17 15 16 13 11 13 18 16 26
43 45 49 54 57 62 71 74 74 70 69 68 66 64 64 63 62 62 62 61 60 59 55 53 52 50 45 42 41 37 37 30 29 27 31 31 24 22 18 15 13 16 14 14 20
42 44 45 49 53 56 62 68 75 75 74 73 71 69 69 65 66 67 65 62 63 62 62 62 62 58 53 50 48 45 40 39 28 26 22 30 31 29 25 22 18 15 15 14 14
44 44 45 46 48 51 54 58 64 70 76 78 76 74 74 71 71 70 69 68 67 64 62 64 65 62 60 58 55 53 49 46 46 42 36 33 29 32 30 29 25 21 18 17 16
46 48 48 49 49 49 51 55 58 63 66 69 74 78 81 80 78 74 73 72 71 69 69 66 62 61 62 62 62 58 56 54 52 51 46 36 29 35 33 28 30 28 26 23 21
38 46 49 51 53 55 55 54 56 59 61 64 67 67 71 75 80 81 79 77 76 74 73 70 67 69 67 62 62 59 59 57 54 57 54 51 54 41 38 42 38 37 34 32 26
32 35 43 50 53 55 56 58 58 59 61 62 64 66 66 68 72 76 81 83 82 80 77 74 75 75 72 68 65 60 60 60 58 56 58 57 55 49 47 48 45 44 41 37 31
38 37 38 40 45 52 56 58 59 62 62 63 64 64 65 67 68 72 75 81 85 86 85 79 79 77 75 72 71 66 66 65 60 58 58 56 54 54 54 52 50 50 46 41 33
43 44 44 44 44 46 49 52 56 61 60 63 63 66 67 69 70 71 74 77 82 86 88 86 85 83 78 75 76 73 73 72 69 66 59 59 54 51 49 48 47 43 43 41 32
37 41 45 48 50 52 53 52 52 53 55 56 61 64 68 71 74 74 75 75 77 81 86 90 91 89 83 84 81 77 80 78 76 70 64 62 60 57 51 53 49 43 40 38 33
32 35 39 42 46 51 55 57 57 56 59 59 62 63 66 69 73 75 79 76 78 79 82 86 94 93 93 89 87 82 81 79 79 75 66 68 65 63 57 58 52 50 43 38 36
28 38 40 41 42 44 46 48 50 52 54 59 62 64 68 71 74 77 81 82 81 81 81 86 85 92 95 95 93 90 87 85 78 73 71 74 67 68 67 61 55 50 51 45 41
29 29 37 44 44 45 44 43 43 44 47 49 52 57 61 68 71 76 83 88 84 85 85 87 85 92 94 94 98 93 94 87 87 80 77 73 72 73 69 62 59 54 53 51 45
35 33 32 40 45 46 44 42 42 43 44 45 47 50 53 57 63 69 77 90 86 90 92 89 88 90 91 95 96 98 93 94 91 87 82 73 74 73 67 66 63 59 56 57 50
34 33 33 35 39 42 41 41 40 41 42 42 43 45 47 51 56 62 72 80 81 89 91 93 94 91 93 97 96 97 98 97 96 91 86 80 76 75 73 70 69 66 61 60 55
38 34 33 32 33 37 36 39 38 37 40 41 43 45 46 48 50 54 59 73 77 79 79 89 96 94 95 95 95 98 97 100 103 96 92 88 82 81 78 76 74 70 64 61 58
37 32 34 31 31 32 34 35 35 38 40 43 46 47 49 50 51 54 57 62 71 75 73 73 87 95 97 100 98 98 98 100 100 98 95 92 87 87 84 81 77 76 61 57 55
31 28 31 29 29 31 32 34 37 35 41 45 46 47 49 52 53 54 57 57 63 62 74 66 73 91 100 107 108 108 102 99 99 95 94 92 93 98 93 83 77 85 66 56 37
19 25 26 27 29 31 32 36 38 40 36 44 47 50 53 54 56 58 58 58 58 61 60 66 66 81 97 107 115 110 105 99 99 96 96 95 101 101 98 92 90 85 54 63 54
14 14 20 26 29 34 35 41 43 45 44 46 51 56 57 58 59 61 61 61 58 58 55 57 59 78 88 100 111 112 109 104 101 94 94 98 101 107 103 97 89 85 48 46 52
23 23 26 29 32 35 40 43 44 47 52 52 56 60 61 62 62 63 66 66 57 49 55 46 49 67 77 99 108 111 111 111 104 98 101 98 100 106 104 94 88 81 70 65 59

GFSSW_250_spd_252.txt.gz
Wind_Speed
62 58 55 54 53 49 49 50 51 51 50 49 45 42 40 37 37 36 32 27 25 24 21 21 18 18 14 12 8 6 17 9 8 5 12 15 20 24 22 28 37 40 42 48 43
64 62 58 57 55 52 49 49 50 51 52 51 48 44 43 41 38 39 36 30 28 27 26 25 24 24 15 16 11 6 5 7 6 5 9 11 13 17 23 26 32 34 37 42 41
61 66 62 59 59 56 53 51 50 52 52 51 52 50 46 46 42 40 40 34 32 29 29 27 24 20 19 19 16 13 3 11 10 7 9 8 11 13 15 18 21 29 29 35 39
54 64 66 63 61 58 56 55 54 52 53 54 53 54 50 49 46 45 41 39 37 34 31 31 27 22 24 22 21 12 21 14 8 10 11 3 8 13 14 17 19 25 24 33 36
52 53 65 66 65 61 59 57 57 56 55 55 56 56 55 52 51 49 47 42 40 39 36 34 33 28 28 26 25 26 22 13 16 8 6 7 10 12 15 15 18 19 19 24 32
52 52 54 64 68 66 63 60 59 58 56 56 57 58 58 57 57 54 51 48 44 43 42 39 36 35 35 31 30 26 25 23 14 21 19 19 21 15 13 16 12 15 19 22 24
48 51 52 54 62 69 68 65 62 61 61 59 59 59 60 59 60 59 56 54 52 49 46 45 43 39 40 39 34 33 31 25 14 26 18 21 15 12 12 7 9 15 18 20 19
42 47 51 53 55 61 68 72 68 66 64 62 61 62 62 62 63 64 64 60 57 54 51 50 48 49 44 43 41 37 35 29 24 17 22 24 20 21 16 17 18 14 15 16 18
42 44 47 51 54 56 60 66 72 71 70 68 67 65 63 65 67 65 65 64 63 61 57 56 55 52 51 49 50 45 41 36 33 29 26 26 25 24 21 20 22 16 16 16 16
44 45 46 48 51 55 58 59 65 72 75 74 73 70 69 67 67 69 68 67 66 65 66 63 61 59 57 57 55 53 50 45 40 41 36 16 24 24 20 20 24 24 22 18 17
47 48 47 47 49 51 54 59 62 66 74 77 77 76 73 72 71 67 68 69 69 68 70 67 64 66 65 65 60 57 54 52 49 45 46 46 32 27 27 30 33 26 22 23 21
40 47 50 49 50 51 52 54 58 63 67 70 76 78 80 78 74 73 73 72 71 71 70 69 70 74 70 70 66 63 61 61 57 54 51 51 48 43 36 36 35 29 31 27 29
33 37 45 51 53 53 53 53 55 58 60 63 67 70 75 79 80 80 79 78 77 76 75 73 76 76 73 73 74 72 71 70 67 62 58 55 54 51 47 44 42 35 38 34 34
35 35 37 41 48 54 55 56 58 59 60 60 61 64 67 72 74 76 81 83 83 82 80 78 82 80 78 76 77 73 73 75 72 70 65 60 60 58 53 50 48 45 43 42 36
41 40 40 40 42 43 49 56 59 61 61 61 64 64 65 67 69 72 73 75 78 82 85 85 86 84 82 80 80 77 79 78 74 70 66 61 58 59 54 52 52 51 50 47 43
41 44 46 47 48 47 47 48 51 57 59 62 65 67 67 68 70 70 73 74 74 74 74 80 87 91 90 90 86 82 84 83 82 75 67 66 58 58 52 57 52 52 48 42 39
32 36 41 46 50 52 54 53 53 52 54 59 60 63 68 71 71 72 73 75 74 73 74 75 78 83 90 93 93 90 90 88 87 80 71 74 66 63 60 61 59 53 48 44 42
20 25 31 39 42 47 51 53 56 60 62 58 60 61 62 65 67 71 75 78 76 76 76 76 77 79 84 86 95 96 95 94 91 85 78 79 72 70 71 67 65 60 53 48 48
21 23 31 35 38 45 50 50 52 54 57 59 62 65 67 67 69 71 72 74 76 78 80 79 79 81 83 83 88 92 97 97 96 92 87 81 77 79 72 68 65 63 60 53 51
28 33 35 35 37 39 44 49 54 54 53 54 55 55 59 61 65 68 72 74 77 79 79 80 77 82 86 87 87 88 91 97 100 96 93 85 83 76 74 71 70 69 65 59 55
36 39 42 37 37 38 41 44 49 54 52 51 49 49 51 53 57 60 63 65 68 73 79 81 83 80 85 89 89 90 93 99 100 96 95 88 85 82 80 75 72 71 66 63 59
39 48 40 38 40 42 41 41 44 46 49 49 47 48 49 51 53 56 58 59 63 62 67 75 78 81 82 90 94 96 98 102 100 97 93 87 86 89 84 78 73 71 66 59 62
41 38 37 43 42 42 41 40 40 41 43 44 47 47 48 51 53 57 59 63 64 64 64 69 71 71 71 78 96 105 105 105 106 99 95 90 84 91 89 85 82 72 68 67 63
36 32 38 36 36 38 38 35 36 37 39 44 48 46 48 52 55 59 64 65 67 68 70 70 72 72 71 76 86 100 106 105 109 103 95 90 91 97 93 89 84 76 74 67 62
32 29 28 19 22 29 30 32 36 37 38 42 46 47 50 53 57 60 62 66 70 71 73 69 71 76 78 81 82 85 101 108 111 106 99 94 93 96 95 89 85 78 79 69 65
29 30 26 24 20 19 25 32 37 36 40 44 48 53 56 58 63 66 67 68 71 75 71 70 67 74 72 85 81 77 93 107 113 110 102 97 97 94 93 91 89 81 81 78 58
28 29 32 27 27 32 32 36 40 41 45 49 52 54 60 63 64 68 72 73 73 71 72 67 69 69 66 77 75 70 87 103 111 113 107 100 98 96 95 92 86 85 85 74 62

GFSSW_250_spd_258.txt.gz
Wind_Speed
58 56 54 52 50 52 53 52 50 47 45 43 40 37 36 32 32 27 23 24 25 22 18 7 10 17 7 5 9 9 6 7 10 11 13 23 26 29 31 35 37 43 48 48 43
57 58 55 55 52 52 54 53 53 50 48 45 44 41 38 37 35 33 28 24 27 25 21 14 13 13 9 4 9 4 5 3 2 10 20 20 21 25 27 32 32 36 43 44 46
58 59 57 57 56 51 52 55 54 54 52 48 47 46 43 41 40 38 34 29 26 27 23 21 20 20 16 6 8 7 6 1 2 9 13 11 17 22 24 27 29 33 39 41 41
57 58 58 57 57 55 51 54 53 55 54 53 50 49 47 45 44 43 40 36 32 28 31 28 24 24 16 18 11 8 5 4 3 3 14 11 20 19 21 22 25 31 35 36 38
54 59 59 58 57 58 55 52 55 55 56 55 54 52 49 47 47 47 46 41 39 34 31 34 31 28 28 23 17 15 11 4 8 6 10 10 17 17 19 19 24 25 30 32 35
52 58 61 61 59 57 58 56 54 57 57 57 57 55 53 52 51 48 46 46 43 41 37 35 37 32 31 27 20 22 18 14 7 6 6 9 15 15 16 19 22 23 26 27 29
51 54 59 62 62 61 59 59 59 56 58 59 60 59 58 57 55 52 50 48 48 44 43 41 39 37 35 32 24 29 28 23 7 7 1 6 9 15 14 15 18 21 26 24 27
46 53 55 59 62 64 63 62 61 62 59 58 60 61 61 60 59 57 55 53 51 49 47 48 44 40 39 38 30 33 33 25 17 12 10 9 10 14 15 16 12 19 20 22 26
41 45 53 57 58 62 65 66 65 62 63 62 61 61 62 64 65 62 61 58 55 53 53 52 51 48 42 42 40 36 39 36 31 29 23 18 14 17 17 13 10 14 14 16 22
39 42 45 53 58 59 61 64 67 67 65 64 64 63 64 64 66 66 66 64 60 58 57 58 58 54 50 49 46 46 44 45 40 34 29 23 23 21 14 12 12 10 11 17 21
41 41 42 46 51 57 61 62 62 65 68 68 67 68 69 67 66 67 68 69 68 65 63 63 63 61 56 53 52 53 52 50 47 44 37 31 30 22 14 12 14 14 17 20 20
46 47 46 46 47 50 55 61 63 63 64 68 72 72 71 71 69 69 70 69 72 71 70 69 69 66 64 61 58 57 59 58 53 50 46 41 37 36 30 29 30 30 26 25 24
45 47 50 51 50 49 51 54 60 63 65 65 67 70 73 74 74 72 70 73 72 71 72 74 74 72 69 68 66 64 61 61 60 58 56 50 45 43 41 39 37 34 34 34 33
40 44 47 51 52 54 54 53 55 59 63 66 67 68 69 71 74 76 77 76 75 74 75 75 77 78 77 74 72 72 68 67 66 64 61 55 54 52 48 46 44 42 39 38 37
39 40 42 45 47 51 55 57 58 57 59 61 64 68 70 70 71 73 75 79 81 80 79 79 78 77 80 81 80 79 76 74 73 72 69 65 60 59 53 52 51 49 46 46 42
45 44 43 42 44 47 50 53 58 60 62 61 62 63 66 68 71 73 73 73 75 79 82 84 83 83 83 83 83 84 85 83 82 78 72 73 66 66 62 61 57 55 56 53 47
44 47 48 48 49 47 46 48 50 53 60 64 66 67 66 66 68 69 72 74 77 78 79 79 82 84 86 86 86 86 86 88 87 84 79 78 71 69 71 70 65 61 59 58 55
31 37 43 47 51 51 52 52 52 53 55 57 61 66 69 70 70 70 71 71 72 75 78 79 80 81 82 86 88 88 87 92 91 87 83 83 77 74 77 77 76 70 66 64 62
26 26 28 31 37 43 48 51 55 59 61 62 62 62 64 66 68 71 74 74 74 75 75 77 80 80 81 83 83 85 83 86 89 89 87 84 81 79 80 82 82 76 71 67 63
26 29 31 32 32 31 33 35 42 48 56 62 65 67 71 70 70 70 71 72 75 79 81 79 80 82 83 83 81 82 83 82 83 83 83 82 82 82 88 86 81 79 75 71 68
30 29 28 31 33 34 33 37 42 48 52 55 59 66 71 75 76 77 75 74 76 77 78 78 78 82 86 83 84 83 84 85 87 84 82 79 74 79 85 88 85 83 82 75 72
34 34 32 28 27 29 32 37 43 48 54 57 60 63 68 73 76 79 80 80 81 81 80 79 78 77 81 84 85 87 86 86 87 87 84 80 73 77 78 83 83 81 82 82 78
35 35 35 32 32 31 33 34 37 41 44 48 53 57 65 70 71 73 75 79 81 82 83 84 84 82 85 88 86 86 87 87 86 87 89 85 74 78 77 76 82 80 78 81 82
38 34 35 37 35 35 35 34 34 34 41 48 54 62 63 63 64 67 71 74 76 80 82 81 80 81 81 86 87 87 90 91 92 90 89 85 79 76 79 77 80 82 77 76 79
39 35 34 35 38 38 38 37 37 38 38 38 41 46 58 64 67 68 69 71 72 74 76 79 78 79 79 78 85 87 89 90 94 95 90 86 81 80 78 78 81 85 81 77 77
37 34 33 32 36 40 40 41 41 42 42 42 41 40 39 44 51 56 59 62 65 68 70 72 75 78 78 82 84 84 85 92 95 92 88 86 80 82 78 78 82 85 87 81 76
34 36 33 33 35 40 42 42 43 45 47 48 49 46 46 48 52 53 52 54 59 64 68 70 73 77 78 84 83 82 88 91 93 93 90 86 83 80 79 77 79 85 87 84 77

GFSSW_250_spd_264.txt.gz
Wind_Speed
57 55 54 55 52 52 51 47 45 42 39 35 33 30 28 26 21 18 19 20 18 17 13 10 10 11 10 6 5 6 12 13 12 17 25 26 30 34 39 40 43 44 46 47 46
57 57 56 56 55 55 54 51 48 45 42 39 36 33 32 30 25 22 20 21 19 17 16 13 10 12 10 5 5 5 7 9 15 12 20 26 30 30 32 35 39 39 43 45 47
55 59 59 57 57 57 56 53 51 48 46 43 41 38 36 34 31 27 24 22 22 22 19 14 13 17 9 9 2 2 7 9 16 13 15 21 25 25 27 29 34 36 37 41 43
53 59 61 59 59 58 58 56 54 51 50 48 45 42 39 38 36 32 31 26 23 21 21 21 14 18 15 8 11 5 4 9 10 8 7 11 21 22 23 25 28 30 31 33 41
51 53 62 62 58 59 59 58 57 54 53 50 48 46 43 42 40 37 35 33 29 25 21 23 20 22 20 12 12 7 7 5 5 7 5 13 18 18 17 21 21 24 28 28 33
48 50 57 62 62 60 58 60 61 59 57 55 52 49 48 45 44 42 40 37 35 32 27 23 26 24 25 21 16 12 10 11 4 4 6 12 12 10 12 14 17 19 23 23 26
47 47 52 60 64 64 60 59 58 62 61 59 56 54 52 50 48 46 45 43 41 37 33 31 28 30 30 29 25 15 16 14 8 12 8 3 4 8 5 8 8 13 17 20 23
42 47 48 53 61 63 63 61 60 59 61 62 61 58 57 54 53 51 49 48 46 42 39 37 34 33 34 33 30 29 22 23 20 15 14 9 5 3 3 6 9 6 8 15 17
40 44 49 50 55 60 62 64 62 61 62 62 62 64 62 60 58 56 54 53 51 48 46 42 42 40 37 36 36 33 31 27 30 27 21 16 8 14 14 13 10 8 1 6 12
41 42 45 50 52 55 61 62 64 62 62 63 63 63 63 63 61 60 58 58 57 55 52 50 46 46 44 42 39 37 39 36 28 33 33 25 21 22 13 15 12 13 11 6 5
42 42 43 46 51 54 56 61 62 65 65 63 62 64 62 63 64 65 64 61 60 60 58 55 52 52 49 48 47 44 43 42 38 36 37 34 29 26 18 15 11 15 11 6 5
44 44 44 45 46 52 56 57 60 62 66 65 65 64 64 64 65 66 66 67 66 65 63 60 57 57 57 54 52 51 49 47 44 43 42 42 40 34 31 32 32 26 22 18 19
44 46 46 47 47 47 51 57 60 60 62 64 67 67 67 67 66 67 69 70 69 69 69 66 63 61 61 61 59 57 56 53 51 49 48 47 48 44 40 38 36 34 32 28 29
41 46 48 48 48 48 49 52 56 61 63 63 65 67 69 70 70 70 69 69 72 72 73 70 69 70 68 65 63 61 61 60 58 56 56 56 54 54 52 47 43 38 34 34 33
41 41 44 49 50 51 51 52 52 55 58 62 66 68 68 70 72 73 73 73 73 74 74 74 75 75 73 71 70 67 68 66 64 62 61 61 61 60 61 60 52 48 43 41 39
46 44 44 45 47 52 55 56 56 55 55 56 59 63 68 70 71 72 71 72 74 75 77 76 77 79 78 76 75 74 74 73 71 68 66 69 65 67 67 64 60 56 51 48 46
46 50 49 48 47 49 51 55 57 58 60 60 60 59 61 63 66 69 72 73 74 74 74 75 77 78 79 80 80 81 79 76 76 75 76 74 70 74 73 68 67 66 64 58 55
34 40 50 53 52 52 51 51 52 55 57 60 62 63 64 64 63 64 65 68 71 74 76 76 76 76 76 76 79 82 83 85 82 80 81 77 78 80 79 75 73 71 69 68 65
38 36 37 46 51 56 56 55 54 54 54 55 57 58 60 63 67 69 69 69 69 70 71 74 75 78 79 79 77 75 79 81 84 85 86 84 83 85 84 81 81 79 75 73 72
41 41 38 38 40 46 52 57 58 58 57 56 54 56 57 59 61 63 65 68 70 73 74 74 75 76 76 78 79 79 79 80 80 80 80 83 84 87 86 85 88 86 82 81 78
45 42 45 42 39 39 41 45 51 56 59 60 60 61 60 60 59 60 61 63 64 67 70 72 75 75 79 78 78 79 79 80 81 81 80 80 81 79 81 85 88 88 86 84 82
50 46 46 47 43 42 42 43 42 43 46 50 55 58 60 60 61 62 63 65 67 69 71 73 74 75 77 77 79 80 81 82 82 81 80 80 79 79 81 80 81 84 86 86 84
47 51 49 48 48 44 43 43 42 43 45 47 46 46 47 48 49 49 51 54 59 63 67 71 75 79 83 82 81 81 80 82 83 84 81 82 80 81 82 83 80 78 81 82 81
61 48 49 46 50 48 45 45 45 44 43 44 45 48 50 49 49 48 49 50 52 54 57 61 67 74 80 83 83 86 87 87 85 83 84 80 84 83 85 84 82 81 79 80 81
60 53 49 45 45 48 48 47 47 46 47 47 47 47 49 50 51 52 54 55 56 57 57 58 59 62 70 78 82 84 86 87 88 91 90 85 84 86 87 85 84 84 81 80 81
61 56 53 45 43 45 45 47 46 46 45 47 50 52 53 54 57 58 59 60 60 62 64 65 67 67 67 72 77 84 85 86 89 90 90 92 89 93 90 85 85 84 82 81 81
64 58 51 44 39 42 44 45 43 45 45 46 46 49 52 57 62 64 66 67 66 65 67 68 70 70 74 72 73 75 85 88 88 89 90 89 89 94 93 91 87 85 84 83 82

GFSSW_250_spd_270.txt.gz
Wind_Speed
60 56 54 53 52 48 45 43 41 37 33 30 29 26 25 20 15 10 16 16 13 16 17 13 12 15 15 11 14 14 21 17 15 24 28 31 33 38 46 47 48 46 44 41 37
61 57 56 54 53 50 48 45 43 40 37 32 31 29 27 24 18 14 13 19 17 13 18 14 9 12 6 8 14 8 17 11 10 14 21 25 26 28 37 42 44 44 42 40 39
63 60 57 55 54 53 51 48 45 43 41 37 34 32 30 29 25 18 15 19 19 17 14 15 8 5 8 3 5 4 5 4 6 8 15 20 22 25 27 31 38 41 42 40 39
64 63 60 57 55 56 54 52 48 46 44 42 39 36 34 32 30 25 21 19 22 20 17 23 16 17 11 11 4 4 3 5 3 3 8 14 13 17 21 23 29 34 37 40 39
63 65 62 58 57 58 55 55 52 48 47 46 43 39 38 37 35 32 27 23 21 22 22 19 23 22 11 6 6 7 12 10 4 1 1 6 8 14 19 16 21 27 30 35 37
58 65 65 63 59 57 59 56 55 53 51 49 47 45 42 40 37 36 33 29 26 24 24 23 21 27 26 19 15 13 12 13 10 6 5 1 8 8 14 11 16 19 24 27 31
52 59 64 65 62 60 58 60 58 57 55 53 50 48 46 45 42 39 38 35 32 28 26 26 22 25 28 24 18 18 15 13 14 10 10 7 1 4 8 4 13 14 14 20 21
46 54 61 67 65 63 61 61 61 59 58 55 54 52 50 48 46 43 41 41 38 35 32 30 27 25 27 27 20 25 20 23 13 16 12 2 10 2 2 8 13 14 10 13 17
43 47 55 62 68 67 64 63 63 62 61 59 57 56 53 52 51 48 46 45 44 42 39 36 34 31 29 30 28 25 26 23 18 18 19 11 13 10 9 15 15 12 8 9 13
41 43 49 55 62 68 68 65 64 65 65 63 62 61 58 56 55 53 51 49 47 46 44 43 41 39 35 34 34 31 32 33 30 26 23 21 18 16 16 17 12 12 6 4 7
42 43 44 50 56 60 67 70 68 67 66 66 65 65 66 61 59 58 56 53 52 51 50 49 48 46 42 40 39 36 37 36 35 34 34 34 29 21 15 16 12 14 10 7 7
45 45 47 47 50 56 60 62 70 71 70 70 69 68 68 66 65 63 62 60 59 57 56 55 53 51 50 47 46 42 41 41 44 42 40 39 39 36 33 31 26 19 15 12 11
45 48 48 50 51 53 56 60 61 64 70 73 71 72 70 70 68 67 67 66 64 63 61 60 56 58 54 55 53 53 49 50 50 51 49 48 45 43 38 38 35 36 30 29 28
45 48 50 52 54 55 56 57 60 64 63 66 71 75 74 72 71 70 70 71 70 68 67 67 62 65 59 61 59 59 55 58 55 56 55 56 58 54 48 46 42 38 40 39 36
38 44 49 52 56 57 58 59 60 62 65 62 62 67 73 76 73 73 72 70 71 71 73 73 68 70 68 64 67 62 63 62 60 61 59 60 63 63 58 55 49 44 42 45 46
33 42 46 50 54 56 60 60 61 62 63 59 64 67 66 69 74 75 75 75 73 73 74 72 73 74 72 72 73 70 70 70 67 66 64 66 68 72 63 62 55 49 47 38 29
24 29 41 50 53 55 57 59 63 64 60 59 63 65 67 68 68 71 74 75 74 75 77 73 73 73 74 75 74 74 74 74 74 73 73 76 73 82 67 65 62 58 60 61 51
34 32 32 38 51 57 57 58 61 65 64 63 66 65 64 63 68 70 71 72 73 75 75 76 76 72 74 75 74 76 75 77 74 79 78 78 81 88 74 71 70 69 67 67 64
41 42 40 40 42 50 57 60 63 63 65 64 68 67 66 65 65 66 68 70 67 73 74 72 72 70 76 78 78 76 80 75 78 80 80 81 87 88 84 81 82 77 73 70 72
51 50 49 48 48 47 48 55 64 65 61 62 66 69 68 68 67 67 66 62 64 66 68 68 71 71 70 76 77 75 76 78 78 78 80 82 86 93 88 88 83 81 79 80 80
63 64 57 58 55 51 49 55 55 58 64 67 64 64 66 70 69 70 68 64 65 67 68 67 67 68 65 74 71 70 72 74 77 75 77 78 86 91 94 83 82 85 82 82 80
73 71 64 64 60 60 57 57 55 47 56 59 66 65 66 63 63 68 69 64 65 70 71 67 72 74 70 72 73 75 73 72 73 74 74 75 78 90 91 90 84 85 81 82 78
59 65 68 68 64 65 65 60 49 47 53 54 55 60 64 65 67 66 63 60 68 66 66 68 71 71 72 74 75 75 71 72 75 77 75 79 76 95 88 91 98 82 77 76 80
45 49 61 69 71 67 67 60 51 52 52 47 51 47 51 59 61 66 66 64 68 66 69 69 70 70 69 75 73 69 73 76 76 76 76 76 75 93 98 96 93 85 78 76 78
35 38 49 62 71 73 67 61 57 43 54 44 46 47 48 49 49 55 58 57 63 65 67 70 71 71 72 74 77 75 74 77 79 78 81 78 83 89 93 99 100 87 85 81 80
28 33 42 49 65 70 66 59 58 44 47 44 40 47 47 46 46 49 49 51 54 54 61 62 64 64 64 68 70 73 75 74 75 76 76 74 78 86 96 97 95 89 85 83 85
21 26 33 41 55 65 65 59 58 44 39 48 39 37 41 42 43 47 49 49 51 52 55 58 59 60 62 67 70 73 80 77 76 77 81 82 83 86 94 89 85 85 84 82 88

GFSSW_250_spd_276.txt.gz
Wind_Speed
59 56 54 51 47 44 41 40 35 33 27 27 26 23 20 18 18 12 10 9 12 7 11 16 17 14 11 10 11 15 21 23 24 28 34 40 46 50 45 37 35 31 27 25 21
60 58 55 52 49 47 44 42 39 35 31 28 28 27 24 20 19 15 11 10 12 10 11 11 14 7 8 7 7 10 16 18 17 25 27 29 32 39 45 46 42 37 33 35 29
60 60 57 54 52 49 47 44 42 39 35 32 29 29 27 24 21 19 12 12 16 14 10 12 6 11 17 8 8 9 11 10 13 17 20 23 26 31 33 38 38 37 36 33 36
61 62 59 56 54 52 50 46 44 42 40 36 32 31 30 26 23 21 19 14 18 16 16 15 13 10 11 16 5 4 7 7 8 11 14 15 17 21 28 31 32 31 32 32 33
61 62 61 59 56 55 52 50 47 45 43 40 38 34 32 31 26 24 24 20 18 21 18 17 13 15 17 18 4 9 7 1 4 7 7 9 11 11 21 25 25 24 25 26 32
60 63 63 61 58 57 55 53 51 48 45 44 42 39 35 34 31 28 26 24 23 22 24 23 17 13 14 14 17 13 9 7 1 4 4 5 5 8 14 20 19 18 17 19 25
54 62 64 63 62 59 58 56 54 51 49 47 46 43 40 38 36 33 30 29 27 25 25 28 25 22 16 17 19 19 13 11 6 6 5 5 5 6 7 17 12 12 9 13 12
53 56 63 65 63 63 60 59 57 55 52 51 49 47 45 43 41 38 36 33 32 32 29 27 28 29 27 24 20 17 14 17 8 7 8 7 2 7 1 8 10 13 12 6 7
50 51 58 63 65 63 63 60 60 59 56 54 52 50 50 48 46 43 41 40 38 36 36 34 30 30 32 29 29 25 18 18 14 13 10 9 11 12 10 6 10 11 10 9 3
44 47 50 59 65 66 65 64 63 61 61 58 57 56 55 52 49 48 46 44 43 42 40 38 38 35 34 31 28 27 24 22 23 20 15 16 15 12 14 13 8 8 9 11 3
38 42 46 48 59 64 67 68 67 66 63 63 62 61 60 57 56 54 52 50 49 48 47 45 41 41 40 38 35 32 30 26 28 32 29 23 18 20 17 17 8 5 8 3 10
35 39 42 44 47 57 63 69 70 69 68 67 66 65 65 62 61 61 59 57 56 54 54 50 46 45 46 44 43 40 37 37 36 30 33 33 31 28 26 21 15 17 15 14 12
36 40 42 43 45 46 51 59 66 68 72 71 71 69 70 68 66 65 64 62 62 61 59 56 52 51 52 48 48 47 46 45 45 38 38 38 39 37 33 31 32 31 29 23 24
33 38 43 46 47 49 51 51 56 63 68 73 75 73 75 72 71 72 69 69 69 67 64 61 59 57 57 54 53 52 53 50 48 46 45 45 44 44 41 39 37 38 32 22 28
25 32 39 44 49 52 51 52 55 57 62 67 71 77 79 76 75 76 74 74 74 71 70 67 64 63 65 62 59 57 55 54 53 53 56 52 51 48 48 47 45 46 40 32 34
17 20 30 38 43 48 53 55 56 58 61 64 69 72 75 78 79 80 79 79 78 76 75 71 69 69 71 66 64 63 64 63 61 62 62 59 57 54 56 54 52 52 51 45 33
24 24 28 28 31 42 48 51 56 61 61 64 67 70 74 75 75 81 83 83 81 79 79 75 74 72 72 72 71 70 69 69 69 70 70 67 61 63 61 61 60 58 49 47 38
34 36 35 34 34 35 37 44 55 60 65 68 68 69 70 72 74 76 77 78 80 83 81 78 75 76 75 75 75 74 74 73 74 76 78 73 70 69 67 45 47 55 56 58 53
36 40 42 44 43 44 41 41 55 58 64 66 67 69 73 70 69 72 77 76 75 76 76 75 77 80 81 81 80 80 78 77 78 79 81 78 77 76 74 75 73 72 69 66 64
41 44 49 53 53 50 48 51 63 63 63 61 66 67 73 72 71 74 72 69 71 75 75 75 74 73 76 76 77 78 80 81 82 84 82 83 82 80 77 77 77 76 75 73 72
50 53 64 66 64 62 59 62 71 73 64 56 55 62 71 71 72 75 71 68 67 70 69 70 71 72 76 79 78 75 74 73 76 80 84 85 87 83 80 80 78 76 72 70 71
61 70 64 66 68 69 72 73 77 74 66 61 60 56 58 63 69 67 65 64 67 73 72 71 69 68 72 74 73 72 72 72 73 74 81 85 85 83 81 81 78 74 69 65 65
75 54 48 51 52 62 74 77 81 80 73 65 62 60 58 55 49 54 62 63 61 69 70 71 70 69 72 69 68 67 66 65 68 71 78 85 84 84 83 79 77 75 71 69 65
75 47 43 44 45 51 61 79 83 86 80 71 68 63 59 52 44 42 45 55 60 68 72 68 67 70 71 68 67 67 68 69 70 72 78 79 80 79 79 78 78 75 73 71 69
73 51 39 36 38 44 55 64 83 88 81 73 68 63 60 56 46 43 43 40 41 48 59 66 69 68 67 67 66 65 64 66 68 72 79 76 81 81 80 81 81 81 80 80 79
67 49 35 33 34 39 43 55 69 83 80 75 70 63 60 52 47 46 42 35 37 47 54 55 57 61 67 67 67 67 70 68 66 72 72 74 76 79 82 84 86 88 88 87 86
63 46 34 29 28 27 37 43 57 70 75 74 66 60 58 51 41 36 41 41 47 45 46 48 49 50 54 58 60 65 69 67 67 70 73 73 76 77 82 89 92 93 93 93 91

GFSSW_250_spd_282.txt.gz
Wind_Speed
47 49 50 50 46 43 40 40 36 31 27 23 22 21 18 12 12 10 5 4 10 13 7 12 7 11 22 24 24 28 30 31 36 41 43 40 35 30 23 21 20 19 17 16 14
47 49 49 52 49 46 43 42 40 36 30 27 23 23 22 17 13 9 9 5 9 8 8 8 6 6 9 17 19 22 26 27 26 28 36 39 40 34 33 33 36 35 32 32 30
49 49 49 51 50 48 46 43 42 39 34 30 26 25 24 19 16 9 12 10 16 11 7 5 6 7 5 10 17 14 20 22 22 20 26 31 32 34 39 38 40 40 37 39 38
50 49 50 49 52 50 48 47 44 41 37 34 31 29 27 21 18 14 15 13 17 15 7 6 8 6 7 6 12 10 12 18 17 15 18 23 23 28 26 30 31 34 37 38 32
51 49 50 50 52 52 50 48 46 44 41 38 35 32 30 26 23 19 17 17 16 20 19 10 12 3 9 9 3 7 9 12 13 10 9 10 17 22 19 20 24 26 24 24 27
52 50 49 52 52 52 51 50 49 47 44 41 40 36 33 32 27 24 22 23 20 17 22 22 21 10 8 8 7 3 3 5 4 5 7 8 6 14 17 16 13 13 16 23 18
52 52 50 51 53 52 54 51 50 50 48 45 43 41 39 34 31 28 26 26 26 22 18 22 20 20 16 11 5 5 8 6 0 6 4 3 4 2 11 12 13 11 10 10 17
54 53 51 51 54 54 53 54 52 52 50 47 46 44 43 40 35 32 31 29 28 27 25 20 23 20 18 18 21 15 11 9 5 5 6 6 3 3 3 4 8 9 11 10 7
53 54 53 52 53 56 55 55 55 53 52 51 48 48 47 44 42 38 35 34 33 30 28 27 26 28 26 25 22 20 22 14 10 11 13 11 10 6 8 7 5 5 6 7 6
44 51 54 53 52 54 57 55 56 56 56 55 53 51 50 49 47 45 42 39 37 36 35 33 32 31 34 34 32 30 25 20 19 17 18 17 16 15 12 13 13 10 6 4 5
33 43 49 53 55 51 54 58 57 57 58 59 58 56 53 51 50 50 48 46 43 41 40 39 37 38 35 34 35 35 35 33 25 21 22 23 22 17 17 16 15 16 13 10 7
22 33 43 48 51 53 51 52 61 61 62 61 62 60 58 57 55 54 53 51 49 47 45 42 41 42 41 41 40 38 36 35 34 32 27 28 28 25 19 19 19 20 17 16 16
19 24 31 39 46 52 54 54 54 60 65 64 64 65 64 63 62 60 60 59 55 52 51 48 47 45 46 45 44 45 43 40 37 36 35 33 34 31 30 25 24 23 23 23 24
18 21 24 29 36 44 53 57 58 58 58 64 68 68 67 67 66 66 65 63 61 59 56 53 50 53 51 52 49 48 49 46 44 43 43 40 39 36 37 38 36 33 33 32 32
4 10 20 27 31 36 44 50 56 59 61 60 62 68 69 71 71 70 70 69 68 65 64 60 58 57 54 55 56 54 52 53 51 50 49 46 46 43 43 44 44 42 41 39 39
8 10 12 15 24 34 42 47 52 56 60 63 63 65 67 70 73 74 74 73 72 70 70 67 66 64 62 62 62 59 58 58 60 58 54 53 54 50 50 48 47 47 48 43 42
13 13 16 19 23 25 30 39 47 54 59 62 64 65 66 68 69 73 75 75 75 74 74 72 71 71 70 70 70 68 67 66 64 64 63 58 58 57 55 55 54 52 51 49 46
17 19 21 23 25 29 31 36 41 46 51 58 63 66 69 70 71 71 74 76 76 77 78 78 77 76 74 74 73 73 74 73 71 70 69 66 62 61 61 60 61 60 58 58 45
22 23 27 29 32 37 39 42 46 47 50 54 57 64 69 73 72 73 73 74 74 76 78 80 79 80 80 80 79 77 76 77 77 75 74 69 67 65 64 64 64 64 64 58 39
33 34 35 37 40 43 45 50 54 56 54 58 60 60 63 70 75 76 75 74 75 75 75 77 80 82 82 81 84 85 84 83 83 82 80 77 74 72 72 70 70 69 66 60 61
42 41 43 45 47 49 53 56 60 63 66 65 65 65 68 66 68 71 74 77 77 76 74 74 74 76 77 78 80 82 83 84 85 85 84 83 81 80 79 78 76 73 68 61 50
47 52 51 53 53 55 59 64 69 73 77 78 76 75 73 72 69 66 67 71 75 77 74 74 75 75 73 72 73 75 77 78 81 83 83 81 80 77 77 76 76 75 72 72 72
51 54 59 63 61 62 65 70 73 76 79 79 81 83 82 78 73 68 68 68 65 66 70 71 71 73 73 73 72 72 72 73 75 78 80 78 78 77 76 74 74 74 74 74 74
57 60 66 69 69 67 71 68 60 61 64 68 72 79 85 82 77 72 72 69 66 63 62 64 70 73 73 73 73 73 73 73 73 74 76 73 73 72 73 74 75 75 75 75 75
63 67 71 72 72 73 63 57 52 51 56 59 66 68 80 84 79 76 74 71 67 66 65 65 63 63 64 68 69 70 71 72 73 74 76 77 78 77 78 78 78 80 80 79 79
60 69 70 71 75 68 54 41 42 44 49 49 54 60 65 76 79 79 77 73 71 67 67 67 63 57 53 55 59 63 66 69 73 75 78 79 78 80 80 80 81 82 84 84 83
61 65 64 71 74 58 42 35 32 36 39 42 45 51 60 65 74 79 77 73 70 67 69 66 64 59 55 52 52 51 53 57 60 66 71 76 81 83 84 85 85 85 85 85 84

GFSSW_250_spd_285.txt.gz
Wind_Speed
44 45 49 47 45 40 36 35 32 27 23 21 19 17 11 7 7 4 3 8 10 11 11 14 14 16 26 28 31 30 37 40 42 37 35 34 31 27 25 24 22 18 15 15 15
45 45 48 49 47 44 39 38 36 32 28 24 21 19 14 12 8 4 5 7 9 8 9 12 10 7 22 23 26 28 30 32 35 37 34 35 39 34 34 29 27 23 24 26 27
46 45 46 49 49 48 43 39 38 36 33 27 24 21 17 17 11 8 7 8 8 8 9 8 13 4 17 16 19 23 24 25 29 31 31 32 32 30 33 35 34 32 34 36 33
46 46 45 47 49 50 47 44 41 40 37 33 28 26 21 19 14 12 15 21 10 10 8 9 9 4 2 13 13 15 23 20 21 22 23 24 26 26 28 26 26 30 29 32 33
45 46 45 44 48 50 50 47 43 42 41 38 35 31 27 21 18 16 20 21 14 7 9 9 10 9 12 9 10 10 12 17 15 15 16 18 18 19 21 19 21 19 18 17 24
44 45 45 43 47 49 51 50 47 44 43 40 38 35 32 26 23 20 21 22 19 20 11 10 8 13 11 12 11 5 3 8 9 11 12 8 11 14 12 13 13 13 13 12 14
44 45 46 43 45 48 49 50 48 47 46 44 41 39 36 33 28 26 25 23 22 21 24 22 14 11 11 12 13 8 4 2 2 4 6 6 6 6 8 8 12 11 9 6 11
45 46 46 46 44 47 48 50 51 49 48 47 46 44 41 38 33 30 29 27 26 24 23 22 22 17 17 15 15 9 8 7 6 3 4 4 5 6 3 3 5 6 5 3 4
42 47 48 48 47 45 48 50 50 53 51 50 49 47 46 42 40 34 33 32 31 30 28 27 26 25 23 24 18 18 16 15 16 11 10 10 8 9 9 6 7 5 5 5 5
35 44 49 48 49 48 48 50 52 52 54 52 52 50 48 47 44 41 36 33 34 35 35 33 31 28 24 25 25 26 22 18 20 18 17 13 13 13 15 12 11 13 12 9 8
28 37 42 51 50 50 48 49 53 54 53 56 55 53 52 50 47 45 42 40 36 37 37 36 34 32 31 30 29 31 29 27 27 23 18 20 20 19 18 19 18 15 13 14 15
20 27 36 42 52 52 53 51 50 53 56 57 55 56 56 54 53 51 49 46 43 41 41 39 39 38 38 36 35 34 34 32 31 30 30 26 24 23 22 22 20 19 20 20 16
13 16 22 32 42 49 55 56 54 51 53 57 58 57 57 59 58 57 54 53 49 46 46 45 44 44 43 44 43 42 40 38 35 33 33 32 33 30 31 31 26 24 24 25 25
14 16 18 21 28 37 47 50 55 54 55 54 56 60 61 59 61 61 60 58 56 53 52 49 46 50 49 48 47 48 46 45 44 42 39 36 35 36 36 37 36 37 30 27 27
6 14 20 23 26 30 34 40 47 52 57 58 56 56 59 64 64 64 62 62 61 60 60 59 55 54 56 55 55 54 53 52 51 50 47 44 41 41 42 42 42 42 37 37 36
9 9 11 15 23 28 31 33 36 43 49 55 57 59 60 61 62 65 67 68 66 64 65 64 63 61 59 59 60 57 56 56 55 53 53 52 49 47 47 46 45 44 45 38 39
8 11 13 16 20 23 26 31 37 42 43 46 52 57 60 61 62 65 66 67 70 71 71 69 68 67 66 66 65 65 62 60 61 61 59 58 55 54 53 54 53 53 52 50 50
12 15 16 18 20 25 28 30 34 37 40 46 53 55 59 61 62 64 66 67 68 70 73 74 74 73 71 70 70 69 69 68 66 65 64 64 59 60 61 61 60 60 60 59 57
21 23 22 23 27 30 34 38 40 42 43 45 49 51 58 62 64 66 68 69 69 69 72 74 76 77 76 75 74 73 73 72 71 69 68 67 66 66 67 65 66 65 64 62 62
32 32 33 34 34 32 36 39 41 48 52 53 55 56 58 60 61 65 70 71 72 71 72 74 75 75 77 79 79 79 79 78 78 76 73 71 71 69 69 69 69 69 66 64 62
40 38 43 42 43 42 42 42 45 47 51 57 60 62 63 65 64 65 66 68 72 74 74 74 74 73 73 73 75 80 82 82 81 80 79 78 77 77 76 76 77 76 72 70 63
47 46 48 49 51 54 53 52 53 56 56 58 61 65 67 68 71 71 70 72 71 71 72 75 75 75 74 73 73 73 74 75 77 77 78 78 77 77 77 77 77 70 53 55 55
52 53 52 57 59 59 56 58 60 58 59 63 66 69 70 71 73 75 77 75 75 74 73 71 73 74 73 73 74 75 76 76 76 74 72 71 69 71 72 73 72 73 74 73 67
56 58 57 61 61 58 62 62 59 63 68 69 70 72 77 80 81 82 84 83 81 78 76 74 71 70 71 74 74 74 75 75 76 75 74 72 71 70 70 70 70 70 71 72 72
60 62 63 61 58 62 65 62 65 65 65 65 65 68 73 75 79 85 89 90 87 83 79 77 74 72 69 67 68 70 71 73 73 73 74 73 74 75 74 74 74 74 75 75 75
63 63 61 57 60 64 66 68 62 55 52 50 51 53 59 67 71 74 82 87 89 86 81 78 76 73 70 67 62 60 62 64 67 70 74 75 75 77 76 76 76 78 79 80 80
61 59 53 55 60 64 67 65 51 35 31 34 39 41 47 53 57 63 73 80 83 80 77 78 78 75 71 67 64 62 60 59 60 60 61 62 65 68 70 73 74 76 78 80 79

GFSSW_250_spd_288.txt.gz
Wind_Speed
41 41 47 47 44 39 34 29 27 25 22 20 15 13 9 5 3 3 9 10 13 17 16 17 21 32 27 37 38 39 41 39 38 35 34 33 30 26 24 21 19 20 21 20 19
41 42 44 48 47 43 38 33 32 29 25 22 17 14 13 10 4 3 4 10 10 13 12 16 13 25 26 28 34 34 33 36 37 34 30 29 28 26 26 24 23 27 29 28 27
42 43 44 48 49 46 42 37 35 33 29 24 20 16 15 13 8 6 9 9 10 11 13 16 14 20 20 23 27 30 30 31 34 33 30 28 28 28 28 29 31 30 32 31 29
44 43 44 47 50 48 45 40 38 36 33 29 25 20 16 15 12 11 8 15 9 11 8 12 14 8 12 13 18 19 23 23 24 27 27 27 27 25 28 30 25 25 26 27 28
44 43 45 45 47 49 48 43 41 39 38 34 31 25 21 17 15 21 21 15 14 9 10 13 11 11 10 9 15 13 15 15 16 18 21 23 22 21 19 21 15 15 13 14 17
43 43 44 45 44 48 50 47 44 42 40 38 36 31 28 23 20 22 26 21 9 14 14 12 13 13 14 14 12 9 8 12 11 10 11 14 14 14 13 13 9 11 8 12 14
42 44 43 46 44 45 48 49 48 45 42 41 40 36 33 29 26 23 27 26 24 23 20 16 9 16 17 16 12 9 8 4 8 9 6 7 11 10 9 8 6 6 4 9 11
41 42 42 44 44 44 45 47 50 49 44 43 43 42 38 34 31 28 27 29 29 28 24 20 12 16 16 19 18 14 11 11 6 5 8 6 5 6 4 3 2 1 3 5 8
39 40 41 44 45 45 44 45 49 51 48 46 44 44 42 39 36 33 31 31 32 31 32 30 24 17 19 21 22 15 14 12 10 9 8 10 8 9 9 9 9 9 7 6 6
34 36 40 43 45 46 45 44 46 49 51 48 47 46 44 42 41 39 35 34 34 34 32 33 31 26 26 20 23 21 19 16 17 16 15 13 14 14 13 14 15 14 14 13 10
30 35 39 42 46 47 47 46 45 46 48 51 50 49 47 45 44 44 42 38 37 37 36 35 35 34 31 31 34 31 29 25 22 18 18 18 19 20 20 20 21 21 17 17 14
24 28 33 39 44 47 49 49 48 46 48 49 49 49 51 49 47 45 44 44 42 42 41 41 39 39 39 37 37 36 35 33 30 27 24 24 24 22 23 24 24 23 22 21 21
17 20 27 32 38 44 50 51 50 50 49 49 51 52 50 53 52 51 49 45 46 46 46 46 45 43 42 42 40 39 36 35 36 35 34 33 33 33 31 28 28 27 24 23 25
11 14 17 22 28 35 42 48 52 53 53 53 51 50 53 55 54 54 54 52 50 48 49 46 47 48 47 45 45 44 42 41 41 40 39 39 37 38 37 37 37 35 35 30 25
3 8 13 17 18 20 27 34 41 48 54 54 55 55 53 54 57 57 57 56 56 55 55 52 51 51 52 51 51 48 48 48 47 46 45 45 45 46 45 43 42 41 40 40 39
3 4 7 11 14 18 22 25 29 34 42 47 52 55 58 58 55 56 61 63 60 59 60 58 58 56 58 57 55 54 53 52 52 52 52 51 52 51 51 51 50 48 46 44 46
6 5 8 12 13 15 17 21 26 33 37 38 45 51 55 58 59 60 60 61 63 66 67 66 64 62 62 63 61 60 60 59 58 58 60 56 57 54 56 57 56 56 56 52 50
7 9 11 14 17 19 21 24 27 30 32 38 44 48 51 54 58 61 63 63 64 65 69 71 71 70 67 67 68 69 68 67 65 64 63 61 60 55 61 60 60 60 61 61 58
14 14 15 17 18 20 24 28 33 38 39 42 43 44 49 53 57 60 62 65 66 66 69 71 75 72 74 74 73 74 75 73 72 71 69 69 65 66 68 68 67 66 65 67 65
23 23 25 27 28 30 33 32 31 36 43 46 50 52 53 54 56 59 62 66 66 69 70 70 75 72 73 74 76 78 78 78 78 76 73 74 70 73 71 73 73 72 71 71 70
32 32 34 36 38 40 43 42 42 46 47 48 51 56 56 62 63 64 65 63 67 69 72 72 75 72 73 73 74 73 78 80 82 80 80 78 76 74 74 75 75 76 75 75 72
34 37 38 41 44 46 49 48 51 54 57 54 54 57 62 61 63 70 73 73 71 71 72 73 75 77 76 72 76 76 76 74 76 76 78 79 82 77 82 80 81 79 78 74 70
41 42 44 47 50 51 55 54 56 57 55 55 57 60 61 66 67 69 75 76 78 77 75 75 76 75 73 75 77 78 77 77 76 75 74 74 76 71 74 74 75 73 69 62 59
47 48 49 51 55 57 57 58 56 55 58 60 60 64 65 67 69 69 75 79 81 81 80 78 78 78 79 79 76 74 76 77 76 76 77 74 73 72 72 71 72 72 71 69 64
49 50 53 54 55 60 59 58 57 60 61 63 68 69 70 71 72 73 77 81 82 83 83 82 82 82 83 80 78 75 73 71 71 75 74 77 73 74 73 72 71 72 72 71 71
50 53 54 53 58 57 56 58 61 60 66 67 65 63 65 67 73 78 83 87 88 89 88 86 86 85 85 82 79 76 74 71 69 68 68 70 72 72 72 73 73 72 72 72 73
46 48 50 55 53 50 51 59 63 63 58 53 51 49 52 55 58 64 71 77 82 86 87 89 91 90 88 86 82 78 74 71 69 69 68 66 62 64 63 62 63 66 68 70 71

GFSSW_250_spd_294.txt.gz
Wind_Speed
35 37 43 42 39 33 28 24 21 20 19 15 10 4 3 5 6 13 19 23 29 36 40 40 37 37 38 34 41 40 35 27 26 27 28 28 27 27 27 27 26 27 27 26 23
39 38 42 45 43 38 33 28 23 22 20 18 14 9 6 6 7 13 12 23 28 33 32 37 36 36 31 33 36 35 29 27 29 27 24 23 26 28 27 26 28 27 26 24 23
40 39 41 45 46 42 38 32 27 24 22 19 18 13 10 8 9 8 12 17 24 27 25 32 34 30 30 26 28 27 28 25 25 25 22 23 21 27 27 24 22 25 23 23 18
42 40 39 41 45 46 43 37 32 28 25 21 18 16 13 11 8 10 9 17 19 23 22 26 27 24 23 24 22 21 20 22 21 18 16 17 17 15 17 18 18 21 22 23 23
44 42 41 40 41 47 46 42 37 33 30 26 22 18 16 13 13 13 12 13 19 19 21 23 17 18 17 19 18 16 12 14 16 15 13 13 12 11 12 14 17 21 20 21 21
45 43 42 41 41 43 46 45 42 37 33 30 26 23 19 14 15 17 15 14 16 20 21 12 19 14 16 12 16 14 8 8 8 10 12 8 6 6 6 9 12 16 14 16 19
45 43 41 41 40 42 41 45 45 41 37 34 31 26 24 18 23 20 17 15 18 18 18 19 15 15 15 14 14 12 11 11 11 11 8 5 5 4 2 2 6 9 11 11 13
45 44 43 42 41 42 41 43 46 46 42 38 34 31 28 25 23 26 19 17 17 18 19 21 20 18 9 14 6 5 10 12 13 12 10 7 8 8 7 5 6 5 8 9 10
44 43 42 41 42 41 42 41 43 45 46 44 40 36 32 30 28 30 25 26 24 20 22 24 21 16 9 3 12 10 9 9 20 11 9 12 15 15 14 13 12 11 10 10 12
41 40 41 41 42 42 42 41 40 42 45 46 44 42 39 35 32 32 31 30 32 27 26 28 25 24 17 16 19 16 5 19 20 12 13 18 20 21 22 20 17 15 15 15 16
33 36 40 40 40 42 41 42 42 41 42 47 47 47 44 41 37 35 36 36 35 40 38 24 25 30 30 31 30 24 27 12 32 23 25 27 25 27 27 25 21 19 19 18 18
27 29 32 35 38 39 41 41 42 43 42 42 46 47 49 47 45 42 38 40 41 42 41 34 34 32 29 32 33 31 38 41 28 23 26 28 32 31 35 32 29 26 26 23 21
20 24 28 33 35 38 39 42 42 43 44 44 44 45 46 48 48 49 48 44 43 44 47 47 44 44 43 42 39 40 34 44 40 28 24 20 26 31 32 35 34 33 32 27 24
16 20 24 28 30 34 38 41 42 45 46 46 46 45 45 47 50 50 49 49 49 47 48 48 50 51 48 49 50 51 45 48 41 30 26 25 24 24 15 22 23 36 38 35 27
5 9 14 20 24 28 33 37 40 44 47 45 48 48 50 50 48 51 52 50 52 52 53 52 52 53 53 55 54 54 52 56 55 48 49 43 35 45 30 35 43 37 35 35 35
3 4 7 10 13 17 21 28 32 37 39 44 50 54 52 53 51 52 53 53 54 54 54 54 57 54 59 57 58 57 57 59 57 59 60 61 63 59 53 48 32 33 43 38 43
2 4 5 6 7 10 13 16 19 23 26 32 39 49 51 54 55 56 57 57 56 58 59 58 60 58 59 59 60 60 63 62 61 60 60 66 67 65 55 50 17 23 45 54 58
5 6 7 9 11 13 16 16 17 16 20 23 26 29 33 37 45 52 60 61 61 61 62 63 65 64 64 63 63 63 65 64 65 64 69 68 71 65 63 63 63 80 76 69 69
17 17 17 17 17 16 16 18 20 19 22 25 27 29 31 34 37 39 43 50 57 66 68 69 68 71 69 70 68 69 67 72 71 68 71 71 73 77 73 71 74 76 79 77 69
19 20 22 25 26 27 28 29 28 27 30 32 31 31 33 36 39 41 45 50 52 54 58 64 72 75 76 68 74 76 75 76 74 74 74 75 80 83 82 73 71 76 77 77 72
27 28 29 30 31 32 34 35 35 35 38 38 39 41 40 42 44 45 48 49 54 59 62 60 63 69 72 72 76 79 80 81 82 81 80 80 89 93 86 77 75 77 79 79 80
37 37 39 40 40 39 41 42 43 42 42 48 47 49 50 50 52 53 52 55 62 59 64 63 65 69 72 69 73 79 82 82 84 84 88 89 97 99 93 85 83 81 83 86 85
37 37 41 43 45 46 45 48 45 47 47 49 52 54 57 58 59 60 60 63 64 67 68 67 65 71 74 79 74 74 80 83 86 83 83 87 97 101 94 93 87 86 86 88 92
44 44 47 46 45 45 45 51 51 51 50 51 55 57 61 62 63 62 65 70 69 70 64 69 77 78 78 85 84 79 76 79 84 83 85 89 99 102 97 90 85 82 81 82 84
46 50 47 49 47 46 45 47 47 47 50 52 52 55 58 62 64 63 62 66 70 66 64 63 72 76 76 83 84 85 82 80 82 81 84 89 95 100 93 84 83 82 80 84 83
48 50 45 43 45 47 45 43 44 45 45 50 55 59 62 59 57 62 67 71 79 77 71 72 73 77 83 79 83 87 85 91 82 83 82 83 90 99 82 77 79 75 75 78 79
48 49 43 39 38 40 38 41 40 43 49 53 53 54 58 59 64 66 74 77 81 79 87 82 82 86 83 85 86 86 85 90 88 90 82 84 93 93 78 64 63 79 80 79 79

GFSSW_250_spd_297.txt.gz
Wind_Speed
37 32 30 34 35 30 24 19 18 16 14 12 7 6 8 11 19 25 30 35 33 38 31 27 25 18 8 17 23 15 22 24 27 27 24 23 22 21 20 20 20 21 24 26 28
40 36 31 34 37 33 28 23 20 19 16 14 11 6 6 9 18 24 29 33 33 34 36 32 32 35 29 22 10 25 26 28 25 24 23 23 22 21 21 21 19 23 22 23 25
42 40 37 33 39 36 32 28 23 19 19 15 13 10 7 10 13 21 27 28 30 29 30 30 27 19 27 25 27 20 20 21 23 22 20 22 18 18 20 20 22 24 28 24 29
44 41 38 35 38 39 36 33 28 23 20 17 16 14 11 12 14 17 27 26 25 28 24 22 19 17 20 23 21 18 16 17 19 14 16 14 15 18 19 20 22 23 24 24 25
45 42 41 38 36 39 40 38 33 28 23 20 17 16 14 16 16 15 17 24 23 26 26 22 22 11 15 13 12 15 18 16 11 8 11 12 12 12 16 16 19 19 20 22 22
46 45 42 41 37 37 41 42 38 33 29 25 21 20 17 17 18 19 18 20 23 22 24 11 20 17 21 14 14 12 10 15 13 11 8 6 6 7 11 12 11 12 14 15 16
45 45 43 41 38 37 37 40 42 40 35 31 25 23 21 16 20 21 19 21 22 23 16 8 20 20 16 13 18 14 12 13 11 12 8 6 3 1 0 1 5 9 9 9 10
43 43 43 41 38 37 36 37 40 44 40 36 32 27 27 23 18 22 22 22 25 26 19 17 13 14 14 17 20 18 15 17 15 15 13 10 8 7 7 6 9 8 8 8 12
42 41 42 42 39 39 38 37 37 39 42 41 37 32 30 30 30 27 25 22 24 27 25 23 19 15 12 18 10 16 12 13 14 19 16 13 12 11 13 14 15 15 13 11 9
38 39 40 41 40 38 38 37 37 37 39 42 41 38 35 33 34 31 29 27 26 28 28 27 25 26 16 13 7 20 13 13 16 16 16 14 13 16 17 22 22 23 20 16 16
34 36 37 40 39 38 38 38 37 37 37 40 42 43 41 38 35 36 33 33 28 36 29 28 30 30 31 27 24 13 15 6 18 12 15 20 23 22 20 23 25 26 24 22 17
29 32 35 38 38 39 38 38 38 37 37 40 41 41 44 44 42 39 43 40 39 41 33 29 35 37 41 37 33 29 18 11 18 26 23 22 26 29 22 22 29 30 28 26 26
24 29 31 33 36 39 38 40 39 40 39 41 40 41 44 48 47 46 43 45 46 46 46 44 39 37 45 44 42 42 32 32 22 14 10 21 15 19 23 26 31 26 32 33 32
16 20 24 28 30 35 36 38 40 41 41 41 41 41 43 45 48 50 50 48 48 48 50 50 49 45 45 40 45 49 44 44 48 42 47 36 31 29 30 30 28 23 26 27 24
10 15 19 24 28 32 35 38 40 43 40 43 44 46 47 48 47 48 51 54 54 53 52 54 54 52 50 49 49 52 51 49 46 51 46 50 42 36 31 30 29 22 29 29 40
5 6 12 16 20 25 29 33 38 41 39 43 48 48 48 48 49 50 51 51 55 56 58 60 60 59 59 59 56 56 52 57 59 58 50 52 46 48 37 33 39 40 40 38 34
1 2 4 6 9 13 19 24 30 35 38 40 45 49 49 51 51 52 52 53 54 54 55 58 62 62 62 63 64 64 61 64 64 64 66 63 54 57 67 63 57 54 59 46 34
5 5 6 9 11 12 14 17 21 20 25 29 34 41 44 47 52 54 55 58 58 58 58 59 60 62 64 64 67 69 68 67 67 67 70 73 71 71 74 70 67 67 61 47 52
13 15 17 17 17 17 18 20 22 20 21 25 30 30 31 34 39 44 49 55 59 61 62 63 62 66 67 62 66 68 67 72 72 72 74 78 78 74 72 75 75 67 56 51 53
20 21 21 21 22 25 28 29 29 27 27 30 32 33 31 35 36 37 39 43 46 50 54 59 62 70 69 70 67 69 72 73 73 73 76 78 83 83 80 77 72 75 64 66 69
24 26 27 29 31 32 33 34 35 33 34 40 41 38 38 41 41 42 43 45 47 48 51 53 55 61 60 64 68 73 75 81 76 78 81 83 89 87 77 78 85 85 68 70 77
22 25 26 30 32 34 37 41 42 43 41 42 46 45 46 47 49 51 53 55 57 55 54 56 59 57 61 65 66 67 69 78 85 81 84 85 88 84 65 73 90 84 85 86 78
29 31 37 39 39 39 39 42 44 47 46 48 50 49 49 52 53 56 58 62 64 65 65 65 62 61 61 70 73 72 69 74 77 81 83 87 90 83 72 68 74 79 69 65 72
41 40 45 44 41 42 43 47 51 48 49 44 47 53 56 56 57 58 60 66 69 67 70 69 66 64 66 76 78 78 74 72 75 78 80 85 88 82 83 80 80 81 87 85 81
42 42 42 47 44 45 44 47 48 49 47 47 47 51 53 55 56 58 59 64 72 65 68 70 67 65 70 79 80 83 80 79 80 79 82 87 90 85 81 86 93 94 91 90 87
36 38 41 42 46 47 46 45 45 46 47 48 49 49 49 50 53 58 63 67 74 72 69 69 69 71 67 81 72 80 86 82 84 85 88 91 91 87 79 78 78 84 90 90 89
41 43 45 43 45 48 45 43 42 42 41 43 43 45 47 52 55 56 59 62 68 73 73 71 76 79 80 80 76 80 81 79 77 84 86 80 84 78 83 85 85 89 89 89 89

GFSSW_250_spd_300.txt.gz
Wind_Speed
27 28 23 24 30 25 20 19 16 13 12 10 10 12 14 19 24 26 28 29 30 32 37 34 31 13 16 12 12 17 11 7 12 17 20 19 20 19 19 21 23 21 27 32 34
29 31 28 25 29 29 25 20 19 17 15 12 11 13 14 19 24 23 27 33 31 27 23 29 21 19 10 12 12 11 14 17 20 21 21 20 19 20 23 26 28 31 29 32 34
33 33 32 28 28 31 29 24 20 20 18 16 12 15 14 21 23 24 26 29 29 29 24 19 10 13 5 21 22 21 20 18 20 23 19 20 20 19 21 21 22 23 25 25 27
37 38 36 33 29 33 33 29 24 21 21 19 16 14 17 20 24 25 26 25 24 26 23 17 21 25 22 15 14 16 20 19 17 15 19 19 19 19 19 19 20 21 18 20 22
39 39 39 36 33 33 35 32 29 24 22 22 19 16 19 18 29 23 24 24 22 22 22 22 14 17 16 17 14 13 11 13 11 16 13 17 18 17 15 16 12 14 15 15 18
42 42 42 39 36 33 36 36 33 29 25 23 21 20 20 21 24 27 24 25 23 20 24 12 7 19 14 12 14 12 13 11 7 8 9 11 13 14 12 10 11 11 11 12 13
43 43 43 40 39 35 35 38 36 34 30 26 24 24 23 26 25 29 28 26 26 19 23 7 15 20 22 20 14 14 13 12 7 6 5 5 5 3 2 3 4 6 7 9 12
42 43 44 41 40 37 36 35 38 38 35 32 27 25 25 26 28 28 29 30 29 29 26 13 12 21 22 20 22 21 18 16 13 12 11 7 6 7 6 7 9 9 10 12 12
39 41 42 42 40 38 36 35 35 39 40 38 34 31 29 29 30 29 29 29 31 31 30 23 20 16 17 18 15 21 18 19 17 19 18 16 14 11 11 12 14 16 17 17 15
37 38 40 41 42 39 37 36 35 36 38 41 41 37 33 32 29 30 31 31 33 31 32 28 22 21 18 10 20 14 16 15 13 17 19 22 19 17 16 16 19 19 21 21 19
35 37 38 38 41 41 38 36 35 36 36 37 40 41 40 37 37 38 35 29 33 35 35 34 28 31 27 19 15 15 13 20 17 18 17 23 20 20 23 22 19 21 20 24 26
32 33 35 37 38 40 40 38 35 36 36 36 37 39 42 42 40 41 42 41 37 36 35 37 37 35 34 34 29 19 20 23 15 19 21 21 24 24 24 20 19 17 18 21 23
27 31 32 34 36 38 39 40 38 36 36 36 38 38 41 44 45 44 45 47 40 44 41 45 43 40 41 40 38 34 33 27 23 22 24 26 23 26 27 16 18 22 25 31 30
20 24 29 33 35 37 38 40 40 40 38 39 38 40 41 42 44 49 51 50 49 46 46 44 43 38 41 44 45 44 41 39 34 31 33 36 27 27 25 24 25 29 31 28 28
14 18 22 26 30 31 34 38 41 42 39 40 41 41 42 43 45 45 49 53 53 52 51 52 55 53 49 47 47 47 49 51 49 47 41 39 36 31 26 28 30 34 33 38 35
7 11 16 21 25 28 31 34 38 39 38 42 44 44 45 46 46 47 48 50 54 57 58 62 62 63 61 59 59 52 50 51 55 57 56 55 49 50 47 42 29 29 37 38 36
1 3 7 12 17 21 26 32 35 37 39 40 43 45 47 48 50 50 50 52 54 55 57 60 64 64 65 65 66 64 64 65 63 63 62 58 56 54 52 52 45 47 45 40 40
5 6 7 7 9 12 16 21 24 27 30 34 39 44 48 50 52 53 53 55 57 58 58 58 60 64 66 66 68 68 70 69 72 75 75 70 66 63 62 62 62 61 60 59 58
11 11 12 14 16 17 19 19 15 18 22 26 32 38 43 43 46 49 52 55 60 59 60 60 61 64 65 65 64 71 70 74 73 74 77 79 79 76 71 72 71 68 67 67 69
21 20 21 20 20 22 24 24 24 23 24 26 29 34 35 33 36 38 43 49 53 58 60 63 62 68 70 68 68 68 70 73 73 74 78 84 80 81 79 78 77 74 73 74 74
18 18 18 20 20 22 27 29 31 30 30 33 38 41 41 37 35 39 42 43 46 48 50 51 53 61 64 69 71 74 74 76 78 76 78 83 83 75 74 73 77 75 66 67 74
26 25 26 27 27 29 30 31 34 33 35 41 45 45 44 45 46 48 49 51 51 49 49 52 52 53 60 61 65 67 70 72 76 81 85 86 88 78 76 71 67 57 54 65 74
29 34 38 39 39 39 39 40 38 38 41 40 43 47 49 53 53 53 54 56 58 57 58 59 59 60 62 70 72 70 70 70 72 71 74 80 85 79 77 79 70 54 52 50 58
35 37 36 39 42 43 44 45 45 45 42 41 46 52 56 55 54 57 58 61 63 61 62 63 63 64 67 70 79 80 80 78 76 76 74 78 81 78 74 67 66 64 75 71 64
35 37 42 40 37 35 38 41 45 45 46 47 49 51 52 57 57 54 56 60 64 62 65 67 67 68 71 74 76 82 83 85 83 82 82 80 78 76 76 75 77 78 78 86 89
39 36 38 39 39 43 41 44 49 49 51 51 50 51 51 53 55 56 56 60 62 59 61 64 67 69 73 75 77 81 84 84 80 80 82 82 78 76 75 75 79 80 83 89 91
50 43 37 36 40 42 44 47 49 52 52 52 52 49 50 48 50 55 54 53 58 63 64 69 71 74 75 78 80 86 89 86 83 84 83 83 81 80 82 84 83 84 87 89 92

GFSSW_250_spd_303.txt.gz
Wind_Speed
24 22 21 19 27 23 19 18 14 11 9 9 12 13 15 20 22 24 27 34 39 37 34 22 15 10 7 3 3 7 7 4 12 21 17 16 20 19 21 27 31 30 32 36 37
28 25 23 22 28 27 23 20 17 14 12 12 13 13 14 20 21 22 26 32 34 34 28 20 9 12 5 6 8 7 3 12 17 18 17 18 21 23 26 22 24 25 26 30 31
32 26 25 25 25 30 27 22 22 18 15 14 16 16 14 18 19 17 24 27 28 29 29 23 18 14 3 3 5 8 14 21 17 18 15 15 19 19 18 19 18 21 22 23 26
34 30 30 31 26 31 31 26 22 21 18 16 18 22 17 16 18 18 20 24 19 23 20 19 14 14 6 14 17 16 16 17 16 19 14 14 17 17 16 15 17 18 20 23 25
37 34 33 33 30 29 33 31 26 23 22 20 19 22 23 19 20 17 19 22 21 18 14 16 13 15 15 18 18 19 18 14 9 13 12 12 11 11 14 11 12 15 16 17 19
40 37 35 36 34 30 34 35 31 27 24 23 22 23 28 24 22 20 19 21 27 17 13 11 13 16 17 15 16 16 16 11 10 8 8 10 9 6 7 8 9 11 14 16 20
41 39 38 38 37 34 32 37 36 32 28 26 25 23 27 29 27 24 24 21 23 28 22 8 15 17 15 15 15 14 14 10 8 6 5 2 4 4 1 4 5 7 11 15 18
43 41 40 40 40 38 35 37 39 36 33 30 28 26 27 29 35 29 29 25 22 23 25 12 12 13 19 15 11 11 14 12 10 12 10 10 10 9 10 10 9 8 11 14 15
42 42 41 40 40 38 37 36 40 40 37 36 32 28 27 30 33 36 34 32 30 29 27 22 12 17 19 17 18 15 16 16 16 17 15 16 20 19 17 14 12 16 17 15 13
38 40 41 40 40 39 38 36 36 39 41 40 37 34 30 31 34 35 36 35 37 34 33 31 26 22 21 22 16 18 23 23 21 22 21 20 25 26 23 18 18 22 19 17 14
34 35 36 36 38 40 37 37 36 37 39 41 42 40 37 35 33 35 38 38 36 37 38 36 34 30 24 26 27 28 27 20 23 24 23 21 25 28 26 22 22 22 18 20 17
30 31 34 33 37 38 38 38 37 37 37 38 40 44 45 42 39 38 38 41 40 39 40 39 39 39 31 30 26 24 35 32 24 19 25 26 24 21 24 25 23 21 18 21 19
27 28 30 32 33 36 39 39 39 39 38 38 39 40 44 46 47 44 43 43 44 43 42 42 43 42 42 35 31 34 32 27 29 25 21 24 27 28 26 29 27 27 26 22 25
22 27 30 33 32 33 37 38 40 41 40 39 39 41 40 42 44 50 50 49 49 48 47 46 46 46 46 45 42 42 35 35 33 31 33 28 34 31 31 30 35 28 28 25 25
17 22 26 28 29 32 36 37 40 42 43 43 42 42 43 43 44 45 49 55 55 54 54 53 48 51 51 52 51 49 47 44 43 42 41 30 34 35 29 32 38 30 32 32 31
10 14 18 22 26 31 35 38 40 41 43 45 45 44 44 45 46 46 48 51 55 58 60 58 54 54 55 57 57 54 49 49 52 46 44 46 43 44 42 37 37 34 34 36 40
4 2 8 15 22 26 31 35 37 38 40 42 46 47 48 47 47 48 48 49 52 55 58 61 61 59 60 63 65 62 61 54 54 53 57 49 50 52 51 46 50 45 44 39 39
4 4 5 7 10 13 19 25 29 33 37 41 45 48 50 49 50 52 53 54 56 55 55 57 60 63 65 66 68 67 67 66 62 65 62 57 61 63 58 56 59 59 59 54 56
8 10 11 13 14 17 18 18 16 19 25 31 37 42 46 51 50 52 54 58 58 57 58 59 60 62 64 67 68 71 72 77 76 72 73 70 71 70 68 66 66 66 65 64 65
11 13 16 19 22 23 24 22 19 22 26 26 29 33 36 39 41 43 46 49 53 55 58 61 64 66 68 68 71 71 74 75 75 78 80 79 78 76 76 75 75 73 72 70 70
14 18 21 21 23 25 25 24 22 23 30 33 34 37 40 42 40 38 38 40 42 45 49 52 55 64 66 68 70 71 74 75 77 77 78 80 81 82 81 77 76 77 77 76 74
21 19 20 25 30 34 35 35 31 30 32 34 37 41 46 47 47 46 45 47 48 47 47 47 50 52 58 59 60 63 67 68 69 72 77 80 76 79 79 77 77 77 76 73 62
22 24 28 30 28 32 35 42 46 44 43 41 43 45 48 49 49 49 51 54 53 54 54 54 56 57 61 62 66 64 62 63 64 65 66 69 69 66 69 70 71 70 70 64 56
24 24 25 30 34 37 39 41 43 45 49 50 50 52 54 54 54 53 54 56 55 58 60 61 62 62 64 67 69 72 73 73 73 71 72 72 72 71 70 70 70 71 62 60 53
31 33 35 35 33 37 43 42 42 44 45 46 49 53 57 58 56 56 58 58 61 62 62 62 65 68 69 71 73 75 78 79 79 79 79 78 79 78 80 80 77 76 77 74 67
43 46 46 50 43 36 38 40 41 45 47 51 50 51 55 57 58 59 59 60 60 59 62 62 64 67 68 71 73 74 75 77 81 82 81 80 82 84 85 83 82 81 80 80 81
54 55 56 56 46 36 34 34 38 43 45 47 51 57 58 58 57 60 61 61 57 57 60 60 62 66 71 72 73 73 73 75 79 80 83 85 85 87 85 84 84 83 81 80 80

GFSSW_250_spd_306.txt.gz
Wind_Speed
23 20 17 19 20 20 16 14 10 10 11 6 12 16 20 29 33 33 32 32 30 27 21 15 7 5 5 3 1 5 1 4 15 17 17 15 24 26 23 24 26 27 31 34 35
26 22 20 21 22 24 19 16 13 10 12 10 7 13 18 24 32 32 32 31 30 25 19 14 8 3 5 1 2 4 3 14 17 18 18 22 22 20 21 22 24 26 29 33 33
30 24 21 21 23 28 23 19 16 13 13 14 10 11 15 20 30 32 31 29 27 22 16 9 8 5 1 1 3 3 17 17 15 17 15 16 14 17 17 19 21 23 24 27 28
31 29 25 23 26 30 28 23 19 17 14 17 17 12 13 18 24 26 25 29 28 21 17 16 11 11 3 1 11 15 19 15 12 13 14 15 14 13 14 15 19 20 23 26 28
33 32 27 27 29 30 31 27 22 21 19 19 20 17 15 16 22 24 22 24 24 24 19 15 14 9 2 8 14 14 15 12 10 9 10 10 9 11 10 11 13 15 17 20 23
35 34 31 31 29 31 34 31 27 23 22 20 23 22 19 20 19 20 26 22 21 22 20 18 14 8 9 11 12 14 13 8 7 9 8 6 3 3 5 8 10 12 14 17 20
35 34 34 34 31 34 33 35 32 28 25 24 24 27 24 22 22 21 24 22 21 18 19 11 13 15 14 11 11 12 8 8 8 8 9 6 6 2 3 9 11 9 15 16 15
36 36 36 37 34 35 34 35 36 34 30 27 26 27 29 26 24 25 24 26 21 15 20 13 14 18 16 14 14 12 13 14 11 9 7 8 8 9 11 15 16 15 20 21 19
34 35 36 39 38 36 38 33 37 38 35 31 28 28 29 31 27 29 26 26 23 24 22 22 14 19 19 16 18 16 16 16 17 18 16 16 14 14 17 18 20 17 17 20 16
36 37 37 39 39 37 37 37 35 40 40 37 34 30 28 31 33 32 30 28 32 30 27 28 25 17 21 20 27 26 19 16 17 18 19 20 20 19 22 23 22 22 18 19 19
36 38 38 40 38 38 39 40 39 38 41 42 40 37 34 31 32 37 37 34 37 36 34 33 31 22 20 23 25 25 23 22 25 25 25 23 25 23 23 27 25 20 23 19 18
29 32 34 34 35 38 39 41 39 37 37 41 44 43 41 38 36 35 40 42 41 40 40 39 37 35 32 29 24 29 27 30 31 28 25 27 27 24 24 24 23 23 25 23 22
24 28 29 29 31 35 36 38 40 38 37 37 40 45 45 46 44 41 40 41 44 44 43 42 43 43 40 38 39 32 31 29 35 36 32 29 25 25 25 25 26 26 26 28 28
19 22 24 26 30 32 33 36 38 40 39 38 38 39 42 45 48 48 47 46 45 46 49 49 47 45 44 44 41 38 38 35 34 31 31 34 34 33 27 31 34 34 30 32 33
14 18 22 25 26 29 31 32 36 38 40 40 41 39 39 42 44 45 47 50 51 48 49 50 52 51 50 48 48 44 40 41 41 44 41 34 35 33 33 33 37 35 32 36 38
7 12 17 21 27 29 31 32 33 34 35 37 41 43 43 42 44 46 48 49 51 53 57 54 55 56 54 53 52 50 49 47 49 42 44 39 46 39 40 36 40 43 42 39 40
5 1 6 11 17 22 28 31 32 35 37 38 40 43 45 47 47 47 48 50 51 52 56 59 59 61 62 60 58 57 55 54 53 55 57 51 44 43 44 48 40 44 51 54 48
6 4 3 4 6 10 15 20 24 29 33 37 42 44 46 48 51 51 51 53 53 53 55 56 59 62 64 65 65 64 61 61 60 61 59 54 52 55 52 50 54 55 53 48 48
6 7 10 12 13 14 14 15 17 19 23 27 32 37 42 46 49 50 53 55 55 54 55 57 59 60 64 67 66 67 66 68 67 66 66 65 63 60 61 62 61 60 61 62 62
10 10 13 15 16 17 19 21 22 25 27 30 30 31 33 37 40 44 48 50 51 53 57 59 60 61 63 64 65 66 66 67 70 70 70 70 70 69 65 66 71 72 72 73 73
15 16 16 19 23 25 27 26 24 28 32 35 37 37 39 41 42 41 38 37 38 39 43 46 50 56 60 62 64 62 63 65 68 68 70 71 70 73 72 70 73 76 78 79 81
12 15 20 24 25 30 32 34 33 35 37 38 38 40 42 45 48 48 45 43 43 43 45 47 46 50 49 52 52 54 55 55 59 63 66 67 62 70 73 76 76 77 77 78 78
16 14 16 18 25 27 32 35 37 39 41 44 49 51 51 50 50 49 48 48 49 51 51 52 52 52 57 57 56 58 59 59 60 60 59 61 58 63 67 67 69 70 69 64 61
19 23 24 28 31 31 34 34 38 42 45 48 52 56 59 60 60 57 57 56 54 55 55 55 55 54 56 59 62 63 65 67 69 68 68 67 66 66 68 71 72 70 70 70 67
31 30 34 40 39 35 36 36 38 44 46 49 50 55 58 60 62 62 62 62 62 61 59 59 58 57 58 61 64 66 67 69 73 74 75 74 74 74 76 78 79 79 78 77 77
39 39 46 49 46 43 39 37 36 39 43 44 47 49 52 56 58 59 59 60 61 61 62 64 59 59 61 63 64 65 66 70 73 74 75 76 79 80 80 80 82 84 85 85 83
45 44 51 53 52 49 45 38 38 36 36 40 41 45 50 56 58 59 63 62 63 61 62 63 63 63 63 63 62 64 68 69 71 75 78 80 79 81 84 85 82 83 84 84 82